GFSFLT1_500_spd_000.txt.gz
Wind_Speed
21 20 22 26 29 29 31 36 40 40 44 45 44 42 40 43 48 48 53 51 50 50 51 52 54 56 57 58 59 62 65 65
21 22 27 29 28 33 40 41 43 49 47 40 39 39 41 49 49 51 50 50 51 54 56 59 60 62 64 65 68 70 71 73
24 26 27 25 35 40 41 43 46 45 44 42 40 45 48 48 48 52 55 56 58 60 63 66 68 71 73 74 75 75 77 78
19 24 28 35 38 40 42 43 44 43 42 45 48 45 46 48 52 55 58 60 63 66 69 72 74 77 79 81 82 82 82 82
20 28 34 37 38 40 42 45 46 46 45 44 45 46 49 51 54 57 61 64 68 71 74 77 80 82 84 84 85 84 84 84
30 38 38 38 37 39 39 40 42 43 42 44 45 48 50 53 58 62 65 69 73 75 78 80 81 83 82 81 82 84 85 87
34 37 40 39 42 36 36 39 39 39 41 43 44 48 53 57 61 65 69 72 76 78 81 84 85 80 79 79 80 82 83 85
35 40 41 41 31 29 33 36 39 40 40 42 48 53 57 61 66 71 74 81 84 84 83 83 82 83 83 84 84 85 85 85
45 43 40 35 29 28 28 31 34 39 46 53 58 63 66 71 74 76 82 84 87 87 86 85 85 86 87 87 87 84 82 83
29 36 32 32 31 33 35 38 43 50 56 63 66 69 74 78 81 84 85 86 87 86 89 90 89 89 87 82 78 79 76 75
33 31 31 33 38 40 43 48 53 58 64 68 71 75 79 83 86 88 87 85 85 87 89 88 82 77 67 66 73 75 67 65
35 35 39 42 45 46 49 54 59 64 67 69 74 79 83 84 86 85 84 86 87 88 82 79 70 61 65 72 70 65 51 47
40 41 44 46 48 51 55 59 64 67 69 73 79 83 86 88 88 87 88 89 88 82 73 70 57 61 66 70 71 51 47 45
43 43 48 49 51 54 58 64 67 70 73 79 84 88 90 90 89 89 89 90 83 68 69 59 62 62 61 65 63 53 52 51
44 48 50 51 54 59 63 67 70 75 80 84 86 88 89 89 90 91 90 79 73 67 54 55 63 59 63 61 52 52 53 55
46 50 51 55 59 63 66 70 75 80 83 86 87 88 90 91 94 92 80 72 65 54 46 58 58 57 53 48 49 51 55 56
48 51 55 59 61 63 68 74 78 81 85 87 90 90 91 95 93 84 71 63 57 47 51 54 46 44 45 47 49 53 54 48
51 54 59 62 63 67 72 75 80 84 86 88 89 90 94 93 82 69 59 53 41 37 37 36 34 40 43 44 50 51 48 42
53 57 59 62 67 71 74 77 81 83 85 88 90 93 92 81 68 56 51 39 32 30 27 30 36 40 42 47 50 48 41 38

GFSFLT1_500_spd_003.txt.gz
Wind_Speed
14 14 14 21 26 24 26 30 31 35 36 40 43 44 32 39 43 46 49 48 48 48 48 49 49 51 54 56 57 60 62 63
17 16 20 21 21 27 32 36 39 41 44 44 44 37 45 36 47 45 48 48 46 47 50 54 58 60 61 62 65 66 67 69
19 18 20 23 27 29 33 39 43 45 44 45 42 42 42 47 50 50 50 51 53 56 59 62 65 67 69 72 75 75 75 77
18 19 22 29 32 35 38 38 41 45 45 44 45 47 46 47 49 50 52 55 59 62 65 69 72 75 76 79 81 81 81 81
21 30 32 35 37 40 42 43 47 48 46 44 45 44 45 47 49 53 58 62 65 69 72 75 77 79 80 81 83 85 84 84
33 36 37 38 38 42 45 47 43 40 39 40 41 43 44 49 55 59 62 65 68 71 75 78 80 83 85 85 85 84 85 85
32 34 39 39 43 44 44 41 40 38 39 39 40 44 48 52 56 60 62 66 70 78 82 84 87 88 88 88 89 89 89 89
30 33 45 46 43 36 35 32 32 34 37 39 43 48 52 57 60 64 69 76 83 85 86 88 89 89 89 90 90 91 92 88
37 44 41 35 34 29 29 33 37 40 44 47 51 57 62 65 69 73 78 81 85 88 90 92 93 94 95 95 95 91 84 79
34 31 34 35 30 32 37 40 42 45 49 54 58 62 64 68 72 77 82 86 90 92 95 95 96 95 96 92 84 77 73 71
31 35 38 38 39 43 46 49 51 53 56 60 63 66 70 75 79 83 86 89 93 94 94 94 95 93 84 78 73 68 66 64
37 41 43 45 47 50 53 54 56 58 61 64 66 70 75 80 84 86 89 92 94 93 95 95 90 80 71 68 69 62 60 63
38 43 47 46 51 52 54 56 59 62 65 66 69 75 79 83 87 89 91 93 94 95 97 88 75 69 64 59 59 57 57 66
39 43 46 48 50 53 55 59 62 64 66 69 73 77 80 85 88 90 93 95 96 99 89 74 65 61 54 52 58 61 66 56
40 42 45 48 51 54 58 61 63 64 69 72 76 80 83 88 90 93 96 97 101 91 71 60 58 51 45 52 57 48 48 49
44 46 49 51 54 57 59 61 63 69 72 76 79 83 87 89 91 95 96 98 89 69 56 51 45 40 41 33 41 45 45 50
47 49 52 53 54 57 60 63 68 71 75 80 84 87 88 90 94 96 98 88 69 52 44 38 31 28 33 38 43 43 48 50
49 51 52 53 55 58 62 67 70 73 79 83 84 86 89 95 95 95 85 67 51 41 36 33 33 32 35 40 45 43 51 49
52 53 54 54 56 61 65 68 72 77 82 83 84 88 93 95 94 85 68 52 44 38 35 35 34 34 37 42 45 44 52 47

GFSFLT1_500_spd_006.txt.gz
Wind_Speed
13 15 16 16 19 23 22 22 24 24 33 41 45 43 43 38 38 41 42 48 52 51 49 49 50 53 53 55 57 59 61 62
14 17 20 21 19 22 26 30 30 36 43 51 50 48 42 39 41 47 53 52 48 48 50 54 56 58 60 63 66 68 70 72
17 20 18 19 24 28 29 34 39 43 47 50 49 48 48 49 47 45 45 46 47 51 55 58 61 63 66 70 73 76 78 80
17 18 20 29 33 37 37 39 41 43 47 46 41 40 41 42 42 43 43 48 53 57 61 63 65 68 71 75 77 80 83 84
22 21 26 30 35 34 39 40 45 46 45 43 42 41 41 41 42 46 50 54 59 61 62 64 68 74 76 79 81 86 90 93
25 32 35 36 32 38 40 49 48 45 45 44 42 42 44 47 49 53 56 57 58 61 66 71 76 81 83 85 90 94 96 95
26 33 39 39 40 43 47 39 40 41 38 39 42 44 47 48 52 56 59 61 65 70 75 82 86 87 90 92 95 96 96 95
24 29 37 39 42 42 37 41 38 39 41 45 47 49 52 55 58 61 63 66 72 77 81 85 86 89 93 97 97 100 101 100
22 28 32 36 38 39 41 39 41 46 49 51 51 51 53 57 60 63 67 72 77 80 84 89 92 95 99 100 100 98 94 86
23 27 32 36 35 36 39 42 41 44 47 49 51 55 58 60 63 67 72 76 80 84 90 94 98 102 101 102 101 97 79 73
25 27 29 32 35 39 42 47 50 53 54 55 58 60 62 64 69 73 76 82 87 91 94 97 99 102 102 99 84 74 67 63
30 32 35 37 40 44 47 51 54 57 58 59 61 64 66 70 74 76 82 86 89 93 94 97 100 99 91 76 65 60 58 51
36 39 42 43 46 49 51 54 56 59 60 62 64 67 70 74 76 81 85 87 90 93 98 99 99 88 72 60 55 45 40 40
40 43 45 46 48 51 53 57 58 61 62 63 66 69 72 75 79 83 86 90 93 100 101 98 86 68 53 46 36 30 32 39
42 45 47 49 51 53 55 59 60 61 62 65 68 72 74 77 82 85 88 92 99 100 97 83 65 49 38 33 33 33 36 41
45 47 49 51 52 55 59 58 59 60 63 67 71 74 77 80 83 87 91 98 98 95 82 65 50 40 34 34 35 37 40 44
48 51 53 53 55 57 58 58 59 62 65 69 73 76 79 82 86 89 98 99 95 84 67 52 41 35 33 35 37 39 42 47
50 55 56 55 56 59 58 58 60 63 69 72 75 78 81 86 90 97 98 93 84 70 54 43 37 33 35 37 38 40 44 49
52 56 55 55 58 59 58 60 63 68 71 75 78 81 84 88 95 97 93 83 70 57 44 38 34 33 36 36 38 41 45 48

GFSFLT1_500_spd_009.txt.gz
Wind_Speed
11 11 13 14 18 20 20 19 22 25 27 37 43 44 44 46 47 43 45 49 47 44 45 45 44 47 50 52 53 55 58 60
15 15 18 19 18 19 23 25 32 37 38 41 44 45 49 52 49 43 40 41 43 44 44 46 49 52 56 57 59 62 65 68
16 18 17 19 18 23 29 34 36 39 43 45 49 51 49 47 44 42 42 42 42 44 49 53 57 60 59 60 63 65 69 71
15 18 20 22 24 29 34 38 33 36 41 46 49 46 44 41 41 42 45 48 50 53 57 60 62 60 61 64 68 70 75 78
15 18 22 22 32 33 37 40 40 45 49 45 44 46 44 45 47 49 51 53 55 58 60 60 61 64 69 72 74 79 85 88
21 22 24 25 29 35 39 42 42 42 41 45 43 42 43 46 48 51 53 55 57 60 61 63 68 72 75 80 84 88 91 95
22 24 24 26 30 34 33 35 38 41 43 43 44 46 50 53 55 55 56 58 60 62 66 70 74 77 81 85 89 93 97 100
19 22 23 24 28 30 33 36 40 42 44 46 49 51 52 53 56 57 59 61 64 68 72 75 79 83 87 92 95 98 102 102
15 18 22 25 28 31 33 36 40 43 46 49 51 53 55 56 58 60 62 65 69 72 75 78 83 86 90 95 101 104 104 101
16 20 24 27 30 33 36 39 42 46 49 52 55 58 58 59 61 62 65 68 71 74 79 83 87 90 95 102 104 102 92 81
19 22 26 28 31 33 37 41 45 47 50 55 57 58 61 61 61 64 67 71 74 79 82 85 89 95 101 104 99 88 75 62
24 27 30 33 36 40 45 48 51 53 53 55 58 60 60 60 62 66 70 74 78 81 86 89 94 100 103 98 83 67 53 42
28 32 35 38 41 45 49 50 52 54 54 59 62 61 61 62 65 69 73 77 82 86 89 93 99 100 94 78 61 46 37 35
34 36 38 41 44 48 50 52 54 54 57 61 62 61 62 65 70 72 77 81 84 88 92 99 99 92 75 60 45 37 36 36
38 39 41 43 47 50 52 53 54 56 59 62 62 62 64 69 71 75 80 83 85 91 99 98 89 73 59 46 38 33 35 37
42 42 44 47 50 52 52 55 56 58 61 61 61 63 67 70 74 78 81 85 91 98 97 88 73 60 47 39 34 33 35 37
47 47 48 52 54 54 55 56 57 59 61 60 62 65 69 73 76 79 83 91 97 96 86 72 61 47 38 34 31 33 35 36
50 51 52 55 55 56 57 58 59 61 60 62 65 68 73 76 79 82 89 95 95 83 71 61 49 39 35 33 33 35 35 36
53 53 54 56 57 58 58 58 60 60 61 64 68 72 77 77 80 87 94 93 80 71 62 51 40 35 33 32 32 33 35 38

GFSFLT1_500_spd_015.txt.gz
Wind_Speed
10 10 10 12 15 17 20 24 24 22 24 29 33 37 42 44 45 46 45 44 42 42 41 42 45 49 52 54 55 55 55 56
12 12 14 17 20 22 22 24 22 25 29 33 36 38 37 35 40 44 45 46 46 47 49 52 53 53 56 56 55 55 56 56
13 14 17 19 21 25 24 26 28 31 33 35 33 32 33 36 38 41 43 46 49 51 51 53 55 56 57 57 58 56 56 58
16 18 19 20 24 25 26 26 28 30 29 28 28 30 34 37 39 42 45 48 51 53 56 57 57 57 57 57 58 58 59 61
21 22 21 25 27 27 23 21 21 22 24 27 30 34 38 41 45 48 51 52 53 55 58 58 59 58 58 58 60 61 65 68
24 22 24 27 23 17 17 18 21 24 27 30 33 36 40 43 47 51 53 55 56 58 61 61 61 60 61 61 63 68 72 75
25 26 25 20 16 17 19 21 23 27 30 33 36 40 44 47 50 50 54 57 58 60 62 63 63 63 63 66 70 73 77 82
26 23 18 17 16 19 23 25 28 31 35 37 41 45 49 50 51 56 59 60 61 62 64 65 65 66 69 72 76 80 83 86
18 18 18 19 22 25 27 30 33 36 39 42 45 48 51 53 56 60 61 63 63 63 65 66 66 69 73 76 81 85 88 92
17 19 22 24 28 31 33 36 39 41 44 47 49 51 53 54 57 60 63 64 64 65 66 67 68 72 76 81 86 88 93 102
22 25 28 31 34 37 39 42 44 47 50 53 55 56 57 58 60 62 64 65 65 66 66 67 72 76 81 85 87 93 103 93
27 30 33 36 39 42 45 48 50 53 55 58 60 60 60 59 61 63 65 64 65 65 67 71 76 81 84 86 92 101 92 83
32 34 37 41 44 47 49 52 54 56 58 60 60 61 61 62 63 64 64 65 64 67 69 74 78 82 85 90 96 99 82 73
37 39 42 45 48 50 52 55 56 58 60 61 62 61 61 62 63 64 64 64 66 69 72 77 81 86 91 99 97 84 73 64
42 44 46 49 51 54 55 56 58 60 61 61 61 59 61 63 65 64 63 66 69 72 75 79 84 89 95 100 87 74 65 53
48 50 51 53 55 56 57 57 59 60 60 59 59 60 61 64 64 64 66 69 72 75 78 83 88 92 95 93 79 67 55 47
51 52 54 55 55 55 56 58 58 56 56 58 59 60 61 63 63 65 69 72 75 77 80 89 93 96 95 84 70 59 49 44
53 53 53 54 55 55 55 54 53 54 57 58 59 59 63 63 64 67 72 76 78 78 81 89 93 98 86 74 61 50 44 41
53 53 53 53 53 52 50 53 55 58 60 59 56 59 63 66 67 70 76 79 79 81 83 91 90 88 74 64 53 44 41 39

GFSFLT1_500_spd_018.txt.gz
Wind_Speed
3 6 8 11 12 14 18 20 21 21 25 26 27 31 33 28 26 30 34 39 41 42 42 42 44 46 50 53 55 55 53 52
5 7 11 14 17 17 21 22 20 23 27 29 29 30 23 25 30 33 36 39 41 43 46 49 51 53 54 55 57 58 54 52
7 10 14 17 22 20 23 24 27 27 27 26 25 23 25 28 32 35 38 42 43 45 47 49 52 55 57 58 59 59 55 53
12 14 17 20 23 23 25 28 27 23 21 21 23 25 29 32 36 38 42 45 47 48 50 52 55 57 58 59 60 59 57 57
16 21 22 23 25 28 29 22 20 20 22 25 28 31 35 37 39 43 47 49 50 52 53 56 59 61 61 61 62 59 59 61
23 25 25 26 28 27 20 18 19 23 26 28 33 36 40 43 46 49 51 54 56 56 60 62 63 64 64 63 62 60 62 65
30 29 28 28 25 20 19 20 24 27 30 34 38 41 45 47 50 52 54 56 56 56 62 62 65 65 64 64 62 64 68 70
33 29 26 21 20 21 22 25 29 32 35 39 43 46 48 51 54 56 58 60 60 61 63 64 65 64 64 62 64 66 71 76
25 19 17 19 22 24 28 32 35 38 41 45 48 51 53 55 57 59 61 62 59 60 63 65 64 62 60 62 65 70 74 79
16 18 22 23 27 30 34 38 41 43 47 50 53 55 57 58 59 61 61 61 60 62 64 66 64 62 63 67 70 73 78 84
21 24 26 29 32 35 39 43 46 47 51 53 56 58 59 60 61 61 60 59 61 64 66 65 62 64 67 71 75 77 82 88
25 28 31 34 36 39 43 47 49 49 52 55 58 60 61 61 61 60 58 60 62 64 64 62 63 67 70 75 79 78 84 92
31 32 35 39 42 45 46 50 52 53 55 57 59 60 61 62 60 58 59 61 62 63 62 63 66 69 73 80 82 81 89 96
38 39 40 43 47 49 51 53 55 56 55 57 58 60 59 59 59 59 61 61 60 63 65 67 69 73 76 81 83 79 90 92
43 47 49 50 51 52 53 54 53 55 56 57 59 58 57 59 62 63 61 62 64 69 72 72 74 77 81 85 87 86 90 83
48 51 55 56 54 54 54 55 55 54 54 54 54 56 58 61 61 62 59 66 72 78 82 83 82 84 84 84 84 87 85 70
50 50 53 54 55 56 55 53 52 52 49 51 55 60 60 57 59 62 62 69 76 84 87 89 88 83 80 82 82 83 73 62
51 52 54 55 57 56 54 52 50 51 51 55 59 57 60 62 60 61 65 69 77 87 92 88 79 74 72 78 74 71 60 55
54 55 55 54 53 53 51 49 50 54 56 58 56 57 61 64 69 74 76 77 79 83 85 82 75 76 74 73 64 58 56 51

GFSFLT1_500_spd_021.txt.gz
Wind_Speed
2 2 4 2 5 6 11 16 18 20 17 19 22 21 21 19 19 23 27 30 34 36 37 38 41 42 44 46 48 49 52 52
3 4 8 4 6 15 15 16 17 22 21 21 19 18 18 21 24 28 33 36 39 41 42 43 46 48 49 50 51 53 55 55
6 9 11 11 13 16 14 17 22 23 18 16 17 19 22 25 29 34 38 40 43 45 46 48 51 53 54 55 55 57 58 57
7 11 18 19 20 21 19 23 21 16 16 19 21 24 27 30 34 38 42 45 48 51 52 54 56 59 57 56 58 58 58 58
9 15 22 24 25 23 25 23 18 17 20 23 25 29 31 35 38 41 44 47 50 53 56 59 61 61 61 60 59 60 60 57
14 16 21 25 26 24 23 20 19 20 24 27 31 35 38 41 45 47 50 52 55 58 59 61 61 62 61 60 60 62 59 56
23 21 22 21 21 19 17 19 20 24 29 33 36 39 42 46 50 52 55 58 59 59 60 61 62 61 59 59 62 60 57 58
22 22 17 15 14 17 19 20 24 29 34 38 42 45 49 51 54 56 57 58 59 60 60 60 60 58 58 62 60 58 60 62
15 12 11 13 17 21 24 26 30 33 38 43 47 50 52 54 55 57 58 59 61 61 60 59 59 59 61 60 59 61 64 66
8 10 13 17 22 26 29 31 34 37 41 46 50 52 53 55 57 58 59 59 61 59 58 59 60 61 60 59 62 65 69 73
14 17 19 21 27 31 35 37 39 41 43 48 50 52 53 56 56 57 59 60 58 57 59 61 62 60 61 64 69 76 80 83
22 24 26 28 30 34 38 42 45 46 45 49 52 53 55 56 56 58 58 56 57 59 61 61 62 63 65 70 74 81 86 90
27 30 31 33 36 39 43 47 50 49 48 50 53 54 56 55 55 57 55 57 60 59 59 62 62 66 68 72 78 80 85 85
35 37 38 40 42 44 46 47 50 51 50 51 54 56 55 55 53 54 57 58 56 59 63 63 65 67 70 71 76 83 74 75
40 43 45 46 46 44 45 50 53 53 52 51 54 54 53 52 54 58 59 57 59 62 66 71 76 80 81 82 82 73 73 74
47 48 46 46 50 49 49 51 53 54 50 50 51 52 53 56 59 58 58 61 64 65 66 70 78 85 84 83 75 72 79 73
47 49 52 53 48 50 50 53 52 50 49 49 53 55 56 58 57 59 62 66 68 73 82 88 85 85 80 71 71 77 70 60
44 47 50 53 55 54 50 50 49 48 50 53 55 55 56 56 59 64 65 67 69 82 85 87 85 77 70 73 73 68 60 54
48 50 51 50 48 47 47 48 49 51 53 54 53 55 58 62 64 66 69 69 70 78 81 80 72 73 76 74 67 60 53 51

GFSFLT1_500_spd_024.txt.gz
Wind_Speed
6 3 3 4 4 5 8 9 9 10 14 14 14 14 13 11 12 16 19 23 27 31 34 37 39 41 43 46 48 51 52 50
6 6 5 5 7 10 13 11 14 15 17 13 10 10 12 14 18 22 26 29 32 37 39 42 44 47 50 52 52 53 53 52
3 6 6 5 9 9 8 10 16 16 12 10 12 15 17 21 25 29 32 36 39 42 45 48 50 53 54 56 57 56 56 54
3 2 4 6 10 13 6 13 12 11 11 12 16 19 23 27 30 33 37 39 42 46 49 52 54 55 56 58 58 57 54 53
8 8 11 12 11 12 11 15 10 10 14 17 21 25 29 32 35 38 41 44 47 49 52 54 57 58 59 59 58 55 54 54
6 8 11 14 15 14 12 9 12 14 17 22 26 30 34 37 40 43 46 48 50 52 55 58 58 59 59 58 56 55 56 57
8 8 10 11 14 15 11 14 16 19 22 27 32 36 39 42 45 48 51 52 55 57 59 59 59 60 59 57 57 58 59 57
11 9 8 8 9 12 12 16 20 25 28 32 37 41 45 48 51 53 56 57 59 60 60 58 61 60 57 60 61 60 59 60
5 4 4 8 13 15 17 20 25 29 33 38 42 45 48 51 53 55 57 59 59 60 58 62 61 59 60 62 61 62 63 62
4 6 8 13 18 21 22 25 30 34 38 42 45 49 51 52 53 55 56 57 59 61 59 59 59 62 62 60 63 66 66 68
9 10 12 17 23 26 29 32 35 39 42 45 46 48 51 53 54 56 57 57 59 58 56 58 62 62 62 64 65 66 69 71
14 14 16 21 27 32 35 38 41 42 41 42 44 48 50 53 54 55 55 55 54 55 59 62 62 63 65 67 67 70 74 80
18 19 22 28 31 34 37 40 40 41 39 41 45 49 53 53 52 51 51 51 56 59 61 62 63 66 68 70 72 76 82 83
24 28 31 32 33 35 33 35 41 42 43 45 48 52 53 52 50 48 52 57 59 59 60 63 68 69 71 75 77 78 82 81
29 32 34 35 38 40 44 45 44 40 42 48 53 52 51 50 51 53 55 57 58 62 65 67 70 73 77 80 79 83 82 73
32 35 36 40 44 47 48 44 40 41 48 49 51 50 51 52 53 54 56 59 63 66 69 72 76 77 82 81 79 75 71 71
36 40 43 46 48 50 41 44 47 49 51 51 50 50 51 52 53 56 59 62 67 68 73 74 78 82 80 74 71 70 73 71
41 42 44 47 49 50 47 48 49 50 50 50 50 50 51 54 57 61 66 68 66 70 74 78 81 76 71 70 70 72 65 58
43 45 47 49 48 47 48 50 49 50 50 49 48 51 55 58 64 67 70 69 67 72 74 78 76 72 70 72 65 58 54 54

GFSFLT1_500_spd_027.txt.gz
Wind_Speed
12 12 12 10 10 8 5 3 1 1 6 7 5 4 3 4 7 11 14 19 24 28 31 34 38 41 42 44 47 49 49 50
7 9 9 8 5 1 2 3 1 4 6 3 2 3 6 8 13 17 21 24 28 31 35 39 42 45 47 49 51 51 52 51
5 5 4 4 3 1 1 2 4 4 4 5 5 7 10 14 18 22 26 29 33 37 41 45 48 49 51 51 51 52 53 52
6 4 4 5 5 3 2 5 7 5 9 9 9 14 17 22 26 30 33 36 40 44 46 48 49 51 53 54 53 53 55 53
5 4 3 7 8 5 6 8 11 9 12 14 15 19 24 30 33 35 37 41 45 47 48 50 51 53 53 54 53 56 54 53
7 7 6 8 9 5 6 10 13 12 14 18 18 24 30 35 38 39 43 46 49 51 53 54 55 53 55 55 56 56 55 57
7 5 7 9 12 7 11 11 13 12 17 21 24 30 36 39 41 44 47 50 51 53 54 54 56 56 55 56 57 57 60 62
9 6 8 8 9 8 7 11 17 19 22 25 29 36 41 43 45 48 49 50 51 51 51 55 56 57 59 58 59 62 64 64
7 8 7 8 9 9 11 14 20 24 28 31 35 40 45 47 49 49 51 51 50 48 51 59 58 58 58 60 63 65 65 66
6 6 8 11 13 11 16 20 24 28 33 37 42 45 45 48 50 51 51 51 50 50 55 57 58 59 61 63 65 66 69 73
7 8 12 16 15 18 22 25 29 34 38 42 45 44 47 50 51 50 52 52 52 53 55 56 58 60 62 64 67 70 74 76
12 13 17 17 19 23 27 32 36 40 42 42 44 43 46 49 51 53 55 53 53 53 55 57 59 62 64 68 71 75 76 80
17 19 19 21 25 28 31 33 36 39 43 41 40 44 45 47 51 56 53 52 53 55 57 58 61 65 69 73 76 78 79 84
21 21 22 28 32 33 33 34 33 38 38 40 42 41 45 49 54 51 49 51 53 54 56 59 64 69 73 76 77 81 85 86
22 24 28 32 33 32 34 35 38 40 37 44 41 47 49 50 51 49 50 51 52 56 59 64 69 70 74 79 81 82 83 84
25 28 28 30 32 34 36 36 39 45 48 48 48 51 51 52 51 49 50 53 56 60 61 68 75 81 82 83 83 83 85 77
30 29 31 34 36 39 43 42 50 49 48 49 52 53 52 50 49 50 53 58 61 66 69 74 76 78 85 85 84 84 77 75
31 33 36 39 43 46 49 50 49 49 50 53 53 54 53 50 50 53 57 61 62 69 67 71 75 80 83 83 82 73 74 62
34 37 40 44 47 50 50 49 49 51 53 54 55 53 50 51 54 57 60 64 66 70 69 70 72 78 80 80 73 67 59 58

GFSFLT1_500_spd_030.txt.gz
Wind_Speed
13 14 13 12 12 8 5 6 5 3 5 5 6 6 6 6 5 8 10 14 19 23 27 31 35 38 41 43 46 48 49 51
6 9 9 11 11 8 7 8 5 4 7 5 5 6 5 6 8 12 16 20 24 28 32 35 39 42 44 46 48 50 51 51
7 8 7 6 5 4 6 9 4 5 4 5 6 6 9 11 13 17 21 26 29 32 35 38 42 46 48 48 48 49 49 49
11 10 9 7 4 5 6 9 8 7 9 8 11 13 16 18 18 22 26 31 34 37 40 44 46 46 46 46 48 49 48 51
9 9 8 9 7 7 8 11 9 10 12 11 13 16 19 21 21 28 33 36 40 43 44 45 47 47 48 45 48 52 54 53
10 9 8 10 11 11 12 16 14 11 13 13 14 18 22 24 27 36 39 42 45 47 45 48 46 45 42 41 58 58 56 55
16 16 16 17 16 13 17 24 7 7 12 16 17 22 25 28 32 39 43 46 47 46 47 47 48 43 45 52 58 57 57 59
19 19 20 21 16 12 13 13 14 12 16 19 24 28 30 34 38 44 46 46 47 46 45 48 51 50 51 54 55 57 59 61
19 22 22 19 13 9 9 15 14 16 20 24 27 33 37 40 45 43 42 46 48 48 50 52 51 51 52 55 57 59 61 64
15 15 12 11 10 10 14 17 17 19 23 29 34 38 42 40 39 43 48 47 47 51 54 53 53 52 54 56 58 62 65 69
14 13 12 12 12 14 18 18 22 26 30 34 39 42 40 40 45 42 44 46 53 54 56 54 52 53 56 59 62 66 72 74
16 16 16 18 17 20 23 25 28 31 36 39 40 37 37 42 39 41 51 53 55 58 57 56 55 55 58 62 66 69 73 77
20 19 20 22 23 26 29 29 31 35 38 40 40 38 40 45 50 49 53 55 57 58 57 55 54 57 62 66 68 75 76 78
21 22 23 25 28 30 31 33 34 37 38 39 39 44 49 51 50 53 55 55 56 55 54 53 55 59 65 67 70 72 77 82
21 24 26 28 31 31 32 33 34 38 40 41 47 47 50 50 52 54 52 54 55 55 55 57 59 58 67 72 75 77 79 78
24 25 27 30 32 32 32 33 35 37 41 42 45 48 50 52 55 54 56 56 56 54 57 59 62 64 67 74 79 78 77 78
27 29 30 31 30 31 33 37 41 44 46 47 46 48 52 54 53 55 56 55 55 57 60 63 61 66 72 77 78 78 78 79
30 31 32 30 32 35 39 43 46 48 49 49 47 51 51 50 52 55 57 57 58 62 65 66 70 70 72 74 77 77 78 79
30 30 31 33 36 40 44 47 48 49 50 50 50 52 54 53 55 57 57 57 60 63 61 74 73 71 71 74 77 77 78 76

GFSFLT1_500_spd_033.txt.gz
Wind_Speed
15 15 14 15 14 12 10 10 11 10 8 8 10 12 11 12 10 9 7 10 12 15 20 23 28 32 36 38 42 45 47 48
12 13 12 11 10 8 8 9 7 7 7 6 7 9 9 8 8 9 10 12 16 20 25 29 33 36 39 42 44 47 48 48
10 11 11 12 10 8 7 9 10 8 8 7 9 10 10 13 15 13 13 16 20 24 29 33 36 41 42 43 45 45 46 48
12 15 14 14 13 13 12 16 16 14 14 12 11 13 15 16 18 18 22 23 23 29 32 37 41 43 44 45 45 43 48 52
10 11 11 12 12 12 16 19 18 13 12 11 11 10 13 18 21 21 23 30 30 35 37 41 44 45 43 45 46 47 46 53
14 14 13 14 15 14 15 16 16 15 14 14 11 11 16 17 21 24 27 32 34 38 40 46 47 43 44 46 50 52 50 50
19 19 18 19 18 16 17 19 18 21 20 17 14 15 19 21 24 26 32 34 39 42 43 48 43 44 50 53 54 54 52 52
24 23 22 24 23 19 19 22 20 20 23 16 15 18 20 24 28 31 32 36 38 42 47 46 47 50 53 57 58 56 55 54
23 25 26 27 24 20 20 21 20 21 12 10 16 21 26 29 32 32 31 35 42 46 45 43 49 56 57 59 56 57 55 55
19 25 25 26 24 20 19 19 20 22 21 21 24 27 30 32 33 33 33 38 42 44 47 51 59 57 57 57 56 58 57 61
14 17 17 17 17 18 17 20 21 23 25 28 30 32 33 34 34 36 36 38 46 52 56 58 59 59 59 58 57 59 61 66
18 17 16 18 20 21 22 24 24 28 31 32 33 35 37 37 39 38 40 44 53 57 55 53 56 60 61 58 57 62 65 70
22 21 21 21 22 24 26 26 28 33 32 35 35 36 39 40 41 40 49 51 55 55 54 56 58 60 59 56 59 65 69 70
25 25 24 24 25 26 28 28 31 31 36 35 37 39 42 41 44 46 55 56 56 56 56 57 60 60 58 59 63 69 71 72
22 25 25 26 28 30 30 32 33 36 36 36 39 40 39 45 47 51 53 54 55 56 58 60 60 60 60 63 68 69 69 74
22 24 26 27 28 31 31 33 34 34 35 37 38 39 38 43 48 51 53 54 57 58 58 60 60 59 61 62 67 72 77 85
26 27 27 28 29 30 32 32 32 33 35 39 42 45 47 49 50 51 53 55 55 56 59 57 57 62 62 60 68 73 84 82
26 27 28 29 29 30 30 31 33 36 39 42 44 47 49 50 51 52 54 55 54 58 56 54 61 62 71 74 78 82 81 78
25 27 28 28 28 29 31 33 36 39 41 43 46 48 50 51 52 54 56 55 57 56 54 58 66 69 72 75 76 78 77 78

GFSFLT1_500_spd_039.txt.gz
Wind_Speed
9 8 9 9 9 9 10 10 11 10 11 10 10 8 8 10 10 10 11 11 11 11 12 13 16 19 21 26 29 32 34 38
7 7 6 6 6 5 5 6 8 7 9 9 7 9 9 10 11 12 13 12 13 15 17 18 20 22 25 28 31 33 36 41
4 4 5 5 3 2 2 2 4 4 4 5 8 11 13 14 16 16 15 15 17 18 20 21 24 27 31 35 41 39 42 43
5 6 6 7 7 7 8 7 7 8 8 9 9 11 13 16 17 16 15 16 17 21 25 29 34 34 38 40 39 39 42 43
6 7 9 10 11 10 10 10 11 12 13 13 12 14 15 18 18 19 20 20 22 26 26 30 30 35 38 39 40 42 46 50
8 9 11 12 11 12 13 14 15 17 17 20 21 19 20 21 22 22 22 20 21 24 27 31 35 38 41 41 43 46 47 53
12 13 14 14 16 16 17 19 19 19 19 22 27 26 30 28 26 28 24 21 21 27 29 33 35 39 42 42 42 46 55 55
17 18 17 18 20 22 23 22 21 19 24 19 31 36 26 32 30 22 18 22 27 30 32 33 35 39 40 47 49 54 57 58
21 21 18 17 18 20 23 24 23 22 24 29 24 36 11 5 13 18 21 24 29 32 31 32 37 39 43 48 52 56 58 62
24 21 21 22 24 25 24 25 25 29 22 24 25 22 20 17 21 24 26 29 30 31 32 36 38 41 42 47 57 63 60 67
22 21 20 21 24 27 27 26 26 23 27 23 29 22 23 25 28 28 33 29 32 34 35 38 41 42 48 55 60 60 65 66
21 22 23 22 25 26 25 25 27 26 25 27 27 29 31 32 31 33 32 32 35 37 38 42 45 48 50 55 55 59 59 61
25 23 24 26 26 28 28 27 29 30 28 30 31 33 35 34 36 37 35 35 38 40 41 43 46 50 51 53 58 58 57 64
25 28 29 31 32 32 32 31 32 33 35 34 34 35 36 37 37 37 37 40 41 42 46 48 50 51 52 54 57 60 60 56
25 25 27 31 33 33 35 37 36 36 36 37 37 35 36 36 37 39 40 40 44 46 48 49 51 53 56 55 48 60 51 69
24 26 27 30 29 30 32 32 33 35 34 36 35 36 37 36 38 40 42 43 46 48 50 51 54 57 59 58 60 65 65 68
25 27 27 28 30 30 29 30 32 31 34 34 35 35 36 38 40 41 44 47 49 52 54 56 59 60 61 63 66 67 67 66
30 30 30 30 32 31 31 31 31 33 33 34 34 35 37 39 42 45 48 50 53 55 57 59 62 63 64 66 67 67 65 65
36 35 34 33 34 34 33 33 33 33 33 33 35 37 39 42 45 48 50 53 55 57 59 61 63 65 65 66 66 66 66 68

GFSFLT1_500_spd_042.txt.gz
Wind_Speed
13 8 7 12 11 14 15 16 18 18 16 18 14 13 15 15 16 11 4 9 12 11 9 13 13 14 15 19 20 23 21 29
7 7 6 7 8 9 11 11 12 7 8 10 9 8 10 11 9 11 13 12 14 11 12 11 13 16 20 22 25 28 30 35
4 4 4 4 3 5 6 7 5 4 7 7 6 6 3 3 8 10 12 15 13 12 11 15 18 22 26 28 31 34 37 37
2 3 3 3 4 5 7 8 8 8 6 6 7 7 6 9 13 14 14 16 12 13 15 18 23 28 31 36 35 40 39 35
6 5 4 5 5 5 7 8 10 11 10 10 11 10 10 11 15 16 16 18 17 18 20 22 24 27 30 31 34 37 38 39
6 6 8 7 5 7 8 9 10 13 14 13 15 16 18 17 19 22 23 22 23 26 24 22 24 28 32 34 37 38 42 43
10 8 9 9 10 12 11 12 12 12 12 15 15 14 16 26 29 29 29 27 26 24 23 22 28 31 32 33 36 38 40 46
17 18 13 12 10 11 11 13 14 12 10 17 19 23 17 26 25 33 32 31 29 26 23 26 31 32 32 35 37 38 44 49
19 19 19 15 14 13 13 13 14 13 14 15 23 15 20 20 18 14 13 11 17 22 28 32 32 31 32 39 41 43 47 47
23 18 20 21 19 16 15 16 17 17 18 15 14 20 20 19 18 18 20 23 25 29 27 28 30 34 37 40 44 46 47 50
26 31 16 17 25 23 19 17 20 22 20 18 18 19 20 19 22 24 24 26 28 28 27 31 36 37 39 43 47 49 50 52
22 23 23 26 25 28 33 22 25 25 21 26 26 25 24 24 26 28 27 30 31 31 32 35 38 38 40 43 46 49 51 54
22 23 24 23 23 26 32 30 32 29 26 28 29 30 28 30 30 30 30 33 32 32 36 38 39 42 44 47 49 51 51 56
20 23 24 27 27 29 34 33 35 34 33 30 31 30 32 33 33 34 35 34 35 37 39 41 43 45 49 50 51 53 56 59
23 23 24 27 28 31 36 36 37 40 38 38 32 32 33 33 33 34 36 37 38 40 41 43 45 48 51 53 53 56 59 61
28 26 26 27 27 28 31 34 35 38 38 35 31 32 33 35 36 35 36 37 39 41 43 46 49 52 54 56 57 60 62 62
27 29 33 27 27 27 27 28 32 34 37 35 33 33 35 35 36 37 37 39 41 44 47 50 52 54 56 58 60 62 64 63
30 33 34 32 32 31 31 32 32 33 34 33 34 34 34 34 35 36 38 40 43 46 50 52 54 56 59 61 62 63 63 63
30 33 37 37 36 36 35 34 35 34 33 34 34 34 33 34 36 38 41 44 47 50 53 55 57 59 61 62 62 63 64 64

GFSFLT1_500_spd_045.txt.gz
Wind_Speed
16 14 14 14 14 16 19 24 14 11 20 17 17 24 17 17 14 20 18 17 18 13 10 13 14 15 17 18 19 19 19 21
14 12 10 8 11 15 17 18 22 20 18 15 17 16 15 16 14 18 19 17 13 11 11 14 16 17 17 19 20 23 23 27
5 4 4 5 9 10 12 15 13 13 13 15 13 11 11 8 7 8 11 10 9 11 14 17 19 19 18 21 23 27 31 33
8 5 4 6 6 9 11 12 12 13 12 11 10 9 9 5 3 7 9 9 12 14 16 19 17 22 20 22 26 27 28 30
6 6 7 5 4 6 7 9 9 10 9 6 5 8 8 6 5 6 7 10 14 16 17 18 18 24 23 24 27 29 32 37
3 4 5 2 2 2 2 4 5 4 3 2 5 5 7 8 9 16 17 17 19 19 22 24 26 26 24 28 29 31 32 36
4 6 3 5 5 3 4 3 3 3 4 4 4 4 8 9 11 17 15 20 23 27 24 26 23 25 28 30 31 32 33 32
3 4 9 7 6 6 4 7 7 10 11 10 10 10 10 9 13 16 17 14 24 29 33 28 26 29 29 31 32 32 34 38
15 12 9 13 11 10 9 11 13 12 14 14 13 14 14 7 10 8 11 13 9 9 10 16 23 25 25 23 28 35 37 39
24 23 17 12 13 11 9 9 10 11 10 12 13 14 13 14 12 11 12 13 14 16 19 21 23 25 30 34 36 37 38 41
23 25 26 20 10 20 17 14 13 13 12 13 17 18 16 17 17 18 17 18 20 20 22 25 27 30 33 36 36 38 40 43
20 24 24 25 22 15 25 20 26 26 17 17 19 26 25 24 20 20 20 24 25 23 27 27 29 33 36 37 38 41 43 45
15 21 24 25 28 26 26 21 12 23 25 19 24 29 34 34 25 16 22 26 27 27 29 31 33 35 38 39 41 44 46 46
10 14 20 25 30 31 27 25 24 24 22 24 27 32 28 24 26 27 27 27 27 30 32 33 34 37 39 41 43 46 49 50
23 18 15 20 24 28 31 28 27 26 27 30 31 33 33 31 33 31 29 29 32 33 33 35 36 38 40 43 46 49 51 52
25 22 18 17 22 26 30 32 31 30 32 32 32 34 32 33 33 33 33 34 35 35 35 36 37 39 42 47 50 52 54 55
25 27 27 22 19 24 27 30 32 34 33 33 32 34 36 35 35 35 37 35 35 34 34 36 39 44 48 50 53 55 57 58
24 28 31 28 23 25 29 32 33 34 34 34 34 33 31 34 36 36 35 34 34 35 37 41 44 49 52 55 56 58 58 59
24 28 31 31 32 32 34 35 34 33 34 36 37 35 33 33 32 33 34 35 36 38 42 46 50 54 56 57 58 59 60 60

GFSFLT1_500_spd_048.txt.gz
Wind_Speed
13 12 12 13 10 10 3 12 25 20 22 25 25 23 23 21 17 20 22 26 17 21 20 18 17 17 21 21 21 21 19 21
9 8 6 9 12 12 18 27 24 14 8 16 20 20 21 23 21 18 19 22 26 20 19 19 19 20 22 22 21 22 22 24
3 3 4 5 7 11 16 18 21 19 15 15 18 17 19 17 13 16 17 20 18 20 20 19 19 21 21 21 20 21 23 25
3 3 3 6 9 9 14 14 14 13 15 16 15 12 14 12 11 9 12 11 13 16 19 21 19 20 22 22 24 24 23 27
4 6 7 5 6 9 11 11 9 9 10 12 13 13 13 14 12 10 9 9 13 16 16 19 21 23 21 22 27 28 27 28
5 4 2 2 2 3 4 5 4 5 6 6 7 8 7 7 4 1 4 11 16 17 17 20 20 22 24 26 31 27 28 30
5 6 6 5 2 3 1 0 1 0 2 1 1 0 0 1 1 1 5 7 17 22 20 23 24 26 26 26 26 30 32 34
3 6 9 9 8 4 3 3 3 5 5 5 4 7 6 10 9 9 8 6 7 17 20 22 25 24 31 28 28 30 28 28
5 8 10 10 13 13 10 11 9 7 6 7 7 9 9 10 10 9 10 8 7 8 14 24 29 27 23 27 27 26 27 31
8 9 12 9 14 14 15 15 13 11 12 8 9 11 11 12 14 14 14 14 14 12 14 15 18 22 25 28 29 31 33 36
11 13 12 11 12 10 12 20 16 16 23 22 18 17 16 18 20 21 20 20 17 16 17 20 21 24 28 29 29 31 34 35
14 10 10 10 9 15 17 19 15 18 21 27 24 18 20 23 26 29 28 25 22 21 19 22 26 27 29 30 32 34 35 36
17 14 11 9 8 10 12 16 21 22 25 24 23 18 21 23 30 31 38 26 22 20 22 24 28 30 31 32 33 34 35 38
17 20 21 17 14 12 13 14 16 17 21 24 25 20 21 25 28 22 15 29 26 23 24 27 30 33 33 33 34 36 38 42
24 27 26 27 24 19 18 19 20 19 23 24 25 25 27 29 28 25 23 28 28 26 29 30 33 34 35 35 37 39 42 46
35 28 17 20 20 22 25 27 27 28 27 26 27 28 29 26 28 29 30 31 29 31 33 33 35 36 37 38 39 42 46 49
34 28 30 29 26 21 23 29 31 32 32 32 30 29 30 29 29 30 33 33 35 35 36 37 38 39 39 40 43 46 50 54
30 30 30 30 28 27 26 29 30 32 33 34 32 30 30 30 31 33 34 36 38 37 39 39 39 40 42 44 48 51 56 58
35 34 32 35 30 27 29 33 35 35 36 34 34 34 33 34 34 34 36 36 37 38 39 39 40 42 45 49 53 57 60 62

GFSFLT1_500_spd_051.txt.gz
Wind_Speed
9 8 6 1 5 10 15 26 24 33 28 28 26 19 27 25 25 27 24 27 25 24 25 19 20 23 23 24 23 23 23 23
4 5 2 1 5 12 11 15 19 36 34 33 28 27 31 30 26 27 29 26 27 25 21 23 21 20 23 21 19 22 23 23
3 1 1 1 4 9 16 17 17 13 15 15 21 27 29 26 32 27 28 25 23 28 27 24 23 23 18 19 21 24 24 24
4 3 2 1 3 6 10 14 12 11 12 14 13 11 22 26 18 18 17 19 23 23 22 23 23 21 21 21 22 24 26 24
3 3 4 4 4 5 7 10 12 12 10 12 15 17 18 18 15 13 15 16 17 17 18 22 21 23 23 23 24 26 29 30
4 3 3 3 4 4 4 5 7 9 14 13 13 14 14 15 16 13 14 15 17 19 22 20 19 24 25 26 28 27 29 32
3 1 2 1 1 4 5 6 5 7 8 12 15 17 17 19 14 12 11 11 16 21 24 22 23 23 24 25 26 29 32 31
5 3 1 2 3 5 5 6 5 6 6 6 7 9 11 12 11 10 9 11 9 18 21 22 24 25 26 26 29 32 35 35
10 8 5 5 3 7 10 10 8 8 8 9 9 10 11 11 11 12 11 11 10 9 17 16 22 25 26 28 22 29 36 37
13 12 10 7 7 7 12 14 11 11 14 15 14 13 14 14 13 14 16 17 15 14 15 19 22 21 26 31 33 31 32 34
15 11 12 14 12 11 9 12 12 18 16 16 18 17 17 18 18 20 19 24 24 22 21 22 22 25 26 27 30 32 33 34
15 10 15 12 13 14 16 16 16 22 20 15 14 21 21 29 23 24 28 31 33 33 30 27 30 29 25 29 31 33 34 35
13 15 14 11 13 14 15 16 16 17 19 20 22 23 23 22 25 26 37 24 36 44 38 26 27 26 26 30 32 35 35 35
19 25 21 17 19 21 18 17 16 17 19 20 22 22 26 23 29 20 27 29 21 29 25 24 27 29 28 31 35 35 36 37
24 28 24 24 26 28 29 23 21 19 20 21 22 23 26 24 25 25 29 25 23 26 29 27 28 31 32 35 38 39 39 40
30 29 31 25 25 23 25 25 26 24 24 23 23 27 29 30 29 27 29 28 28 30 29 29 30 34 36 37 40 41 41 43
38 40 33 28 23 27 31 30 28 29 27 27 28 28 31 33 30 31 31 31 33 31 31 32 35 36 39 40 43 44 45 47
35 34 32 29 27 31 30 32 33 30 31 31 31 33 34 34 35 35 35 36 37 37 32 32 37 41 43 44 44 46 49 50
34 39 28 30 34 37 36 34 33 32 34 35 32 32 34 35 36 38 38 38 41 38 35 38 40 43 44 46 48 50 52 53

GFSFLT1_500_spd_054.txt.gz
Wind_Speed
4 4 4 3 5 10 17 22 24 25 21 21 22 19 21 22 26 24 25 21 22 27 22 25 25 26 26 23 23 22 22 25
4 5 7 7 7 12 18 20 25 26 20 26 22 25 25 23 24 24 22 25 27 28 24 27 26 24 25 25 24 24 24 24
9 9 9 9 7 12 15 11 26 33 24 27 26 26 30 30 34 27 21 26 27 28 30 30 27 22 25 24 22 22 24 24
9 10 8 7 5 5 10 11 9 11 18 30 32 34 33 33 32 29 27 25 30 32 30 30 28 27 24 22 21 22 24 23
8 8 6 5 2 3 4 6 9 10 13 12 16 24 29 33 30 29 30 28 30 29 26 27 25 25 24 23 23 22 23 25
6 6 4 3 4 3 2 2 4 4 7 9 9 9 12 23 22 17 16 16 15 17 22 25 24 25 23 27 26 26 26 27
6 6 5 4 4 5 6 4 3 4 6 7 10 13 16 18 17 18 20 19 21 24 27 26 27 28 29 31 33 27 26 28
10 7 5 6 6 5 6 6 5 5 6 6 7 7 10 12 14 12 15 18 18 20 26 27 29 32 31 28 27 25 24 31
12 12 10 10 11 6 10 11 10 9 7 7 8 9 11 16 17 17 17 14 15 16 16 23 27 29 26 28 24 27 31 36
17 16 12 12 13 14 9 10 15 15 13 10 9 10 12 16 18 16 19 20 18 18 17 17 23 27 28 31 26 30 33 34
16 16 13 12 12 14 14 14 16 17 16 15 14 14 17 19 19 18 20 21 22 22 24 25 26 28 26 30 30 33 36 34
14 14 15 12 13 12 13 17 17 18 21 20 21 16 19 16 17 21 23 25 25 27 30 32 32 34 30 34 34 37 36 36
18 17 18 14 18 18 15 14 18 21 22 19 17 20 23 25 19 19 26 31 28 32 38 39 41 44 34 39 38 43 35 35
25 25 21 21 20 23 21 20 20 21 24 22 23 23 26 24 24 25 19 27 23 28 28 26 25 46 29 26 36 36 36 39
27 29 22 21 23 22 26 27 29 26 26 27 27 26 26 26 29 31 24 26 29 28 28 30 27 26 28 28 30 39 43 40
28 25 22 25 27 28 29 29 25 24 24 25 26 28 29 29 28 30 31 32 36 29 33 34 36 33 29 28 37 41 41 43
35 35 33 32 28 28 23 28 28 27 27 26 30 35 33 31 30 30 32 34 33 34 36 36 36 34 31 36 39 39 42 45
31 32 34 29 23 28 29 24 30 35 37 35 34 35 38 36 36 37 37 36 38 37 37 39 39 37 37 41 41 44 46 47
30 32 33 29 26 21 23 26 31 37 39 40 37 35 36 35 36 35 37 38 40 42 41 41 40 41 42 46 46 48 50 52

GFSFLT1_500_spd_057.txt.gz
Wind_Speed
8 8 7 6 7 7 9 12 15 19 21 20 25 27 29 29 27 28 30 31 31 32 27 22 22 25 26 27 27 29 30 27
10 12 10 10 12 12 16 19 21 23 26 26 22 19 23 21 24 24 26 29 30 30 27 26 23 24 27 26 28 28 27 27
11 13 13 11 10 12 19 11 23 26 28 24 24 28 23 30 25 24 29 24 28 28 28 27 24 24 27 27 26 26 27 24
11 10 11 11 9 10 13 14 9 25 23 30 25 27 26 29 27 26 27 31 30 28 28 30 27 26 27 27 26 26 24 23
10 8 7 6 8 9 8 7 8 3 14 26 22 27 25 26 29 29 34 25 25 32 29 31 27 28 28 28 29 25 26 27
9 7 8 7 6 6 7 6 1 4 4 5 9 15 27 29 35 32 34 29 24 29 33 30 30 29 31 31 27 26 26 28
10 7 5 4 5 7 7 5 5 5 5 8 8 9 6 17 25 23 23 24 19 19 23 24 26 25 26 28 28 30 33 34
12 10 7 4 5 7 7 7 7 6 7 9 8 8 8 10 14 16 16 17 19 19 20 21 23 26 31 33 32 33 36 35
11 13 12 9 11 11 11 12 12 9 7 8 10 9 10 12 13 15 15 17 19 19 18 20 26 31 34 35 35 33 33 32
15 17 16 16 14 13 14 13 12 11 13 12 10 8 9 11 14 17 19 19 21 20 21 22 23 27 31 34 35 35 35 32
17 17 16 16 15 15 12 13 13 13 11 14 14 15 15 15 15 17 18 18 21 23 23 23 25 25 25 28 31 33 35 32
17 17 15 15 15 13 12 13 16 16 16 16 17 16 21 20 19 16 15 22 24 25 28 30 29 29 30 32 33 36 38 37
21 23 20 18 19 15 13 14 13 14 18 19 21 22 23 23 19 24 24 21 21 26 33 31 27 32 33 39 46 47 46 42
29 25 23 23 24 20 20 19 20 21 20 20 18 19 20 23 28 31 27 27 22 30 26 28 27 29 31 36 31 40 39 39
30 27 25 26 27 28 25 23 21 22 25 27 24 22 22 24 27 28 31 31 32 34 29 29 36 33 34 34 32 34 37 35
31 32 32 31 33 33 33 30 31 30 30 28 22 23 22 23 25 29 34 37 36 34 32 32 39 36 35 41 39 40 37 38
34 31 32 34 33 34 33 32 32 33 31 28 28 26 24 25 28 30 32 34 36 37 37 38 42 40 38 43 42 39 40 37
29 30 29 30 32 32 30 31 33 34 33 33 31 32 32 33 35 37 40 38 37 38 40 42 41 42 43 43 45 41 40 43
28 32 34 30 29 27 26 30 28 27 30 30 34 38 41 42 41 42 40 39 39 39 40 40 40 42 44 48 47 46 46 47

GFSFLT1_500_spd_060.txt.gz
Wind_Speed
14 12 9 8 7 8 9 9 11 15 16 16 18 22 29 29 34 40 22 28 32 38 48 38 38 37 34 35 35 34 28 26
13 14 12 11 11 9 10 16 21 21 22 20 20 21 30 34 34 29 30 27 33 37 36 37 31 26 30 28 28 27 27 28
12 12 12 10 10 10 11 20 18 25 28 26 23 22 28 31 30 32 32 31 32 35 33 30 26 30 28 25 25 27 26 29
11 12 11 10 8 9 11 15 5 17 28 27 25 23 23 28 22 26 26 24 24 26 30 31 32 31 32 30 27 27 31 28
12 10 11 8 7 8 8 9 10 3 18 19 22 21 25 23 14 19 22 19 28 24 28 33 33 32 31 32 30 29 27 28
13 8 8 6 4 5 6 5 4 2 5 10 17 26 25 25 29 27 25 27 26 28 31 38 33 33 35 36 28 28 27 26
13 11 8 7 5 5 6 5 3 3 4 5 5 6 11 19 29 28 27 30 33 29 30 33 35 35 36 31 29 28 28 28
14 13 10 8 7 9 7 7 6 5 6 7 7 8 10 8 14 30 29 24 26 28 26 32 29 29 31 27 28 29 28 31
16 15 12 10 11 12 9 8 9 8 6 8 10 9 10 9 7 6 11 15 16 18 20 20 20 22 24 28 31 31 33 35
16 18 17 13 14 15 12 11 10 9 9 13 10 9 11 12 12 11 15 15 15 17 21 22 21 20 24 27 29 31 36 37
21 19 23 17 15 15 14 13 9 9 8 10 15 14 13 13 14 16 19 21 21 23 25 25 23 23 25 27 25 29 32 34
24 22 22 21 16 14 16 12 12 12 12 11 11 14 16 15 14 18 21 20 21 25 25 25 26 28 29 31 30 31 34 34
24 24 24 24 18 15 17 15 14 15 14 14 12 15 15 15 16 21 21 23 23 25 23 27 28 31 33 33 34 36 35 38
25 27 28 28 27 24 21 23 20 21 20 17 18 18 17 16 17 19 22 26 27 28 26 28 31 34 32 34 36 34 34 38
30 31 33 30 29 29 27 26 28 27 26 22 21 22 24 25 26 24 23 25 25 26 27 28 34 32 34 32 38 39 40 42
35 34 34 34 31 31 32 34 34 35 32 34 31 30 29 31 28 27 27 26 26 28 28 29 33 31 31 39 40 44 44 44
38 37 37 35 35 35 37 37 36 37 37 38 36 34 31 31 30 30 31 29 29 30 31 36 36 37 36 38 41 43 43 48
40 42 41 41 39 39 40 40 40 39 39 41 40 37 34 35 37 37 35 35 36 36 38 40 40 41 40 41 43 46 44 45
37 37 41 41 41 42 38 39 40 43 43 44 37 36 32 34 37 41 41 42 42 43 43 43 44 42 41 41 43 46 47 44

GFSFLT1_500_spd_066.txt.gz
Wind_Speed
14 11 10 11 11 13 12 12 12 12 15 19 19 19 19 17 24 28 36 40 38 41 38 33 34 42 38 50 50 41 38 38
12 12 7 10 13 14 13 12 13 17 21 23 24 20 18 20 18 28 32 37 37 39 42 41 38 42 42 52 52 45 41 40
12 13 7 6 9 11 13 13 16 18 23 19 20 20 15 16 14 23 30 28 29 36 33 34 31 35 49 42 47 50 42 43
10 13 9 6 6 9 11 14 16 19 20 12 10 16 14 15 15 14 25 21 26 33 36 36 29 28 30 30 43 42 35 35
10 13 10 8 5 5 10 12 16 16 15 7 4 11 12 12 12 9 19 22 24 22 20 15 11 10 9 13 25 24 26 23
13 12 10 9 6 5 7 11 11 12 10 8 5 6 10 11 12 15 8 13 6 16 20 13 10 5 6 20 23 24 24 24
15 12 11 9 8 7 7 10 10 11 9 7 6 4 4 11 15 15 19 15 10 5 10 11 11 13 12 12 22 24 24 26
17 14 12 10 11 9 8 9 7 8 10 9 8 7 6 4 3 4 10 13 17 18 18 19 16 17 18 18 21 24 25 30
18 18 14 11 11 13 11 11 10 8 8 7 8 8 8 7 7 5 6 7 20 20 18 23 19 23 24 18 24 30 30 32
20 22 20 13 13 14 13 13 12 10 10 8 8 9 9 8 9 8 8 5 6 11 11 13 12 9 12 14 14 13 17 21
21 23 22 18 17 14 14 15 14 13 12 10 9 9 9 11 11 10 10 8 7 9 11 12 13 16 19 20 21 18 20 21
23 20 24 23 20 18 17 17 17 14 13 13 14 13 13 13 13 13 12 13 14 14 15 15 16 18 20 21 23 24 25 23
24 21 26 27 25 23 22 20 20 18 15 14 16 15 14 16 17 18 17 16 16 18 21 22 20 20 19 20 23 26 26 26
26 25 26 28 28 27 27 25 22 22 21 18 17 18 18 18 20 19 18 18 18 18 19 21 23 24 25 24 25 25 26 27
29 31 27 28 30 31 30 28 26 27 27 26 24 21 22 23 22 21 20 22 23 24 24 24 24 26 25 24 23 28 30 30
28 30 30 32 33 33 33 31 30 31 30 28 29 29 28 26 28 28 30 30 29 30 28 30 32 31 29 29 30 30 32 32
32 33 33 33 34 33 34 32 33 33 32 32 34 32 32 30 29 31 32 31 33 35 34 32 34 35 34 36 37 37 38 40
38 39 36 38 38 36 37 37 37 37 36 37 39 40 38 35 35 35 35 34 36 37 36 37 37 38 38 40 42 47 49 49
32 38 41 42 42 42 44 44 45 48 45 44 46 45 44 43 42 41 39 40 40 38 38 39 38 39 40 41 44 48 49 51

GFSFLT1_500_spd_069.txt.gz
Wind_Speed
17 18 13 13 8 8 8 9 11 11 14 14 14 13 13 14 19 24 31 35 35 38 34 33 36 38 31 34 40 43 45 43
13 15 14 14 8 10 7 8 11 14 14 18 20 17 17 15 17 20 25 28 34 37 37 37 33 37 29 32 34 38 42 49
12 14 14 14 11 7 8 7 8 12 17 19 18 17 17 14 15 15 15 22 20 28 34 31 32 31 31 30 31 36 40 39
6 13 12 13 12 7 6 8 9 13 16 17 13 8 14 13 9 8 9 15 19 20 26 27 29 32 36 35 35 36 34 42
4 14 14 12 13 8 5 9 12 13 11 11 4 3 7 6 6 8 7 10 16 24 21 27 29 30 35 38 37 36 30 21
12 16 15 13 12 9 8 10 13 11 9 8 5 1 5 6 9 7 10 6 18 22 23 23 28 21 22 22 18 19 17 19
8 14 15 15 13 10 10 11 12 9 8 6 6 5 3 2 6 7 7 6 2 7 10 22 17 20 17 12 14 15 16 20
10 12 17 17 16 15 12 10 12 11 10 7 5 5 3 3 3 2 4 12 13 13 13 16 17 19 13 14 13 14 20 23
13 14 19 17 18 17 13 12 11 12 10 9 5 5 6 3 2 2 4 6 14 21 22 19 19 19 19 20 16 20 21 24
16 18 19 19 19 18 14 14 12 11 11 10 6 3 3 7 6 4 5 7 8 9 21 16 18 20 19 23 19 15 22 26
21 17 20 22 22 20 17 16 14 12 12 11 8 6 6 6 6 9 8 7 5 5 8 9 9 11 14 15 16 17 16 14
22 17 22 23 24 23 22 17 16 14 13 11 10 10 10 11 9 8 9 11 10 8 9 12 12 13 15 15 17 19 19 21
21 21 20 24 26 25 26 22 19 18 16 15 13 12 12 13 12 10 8 9 9 12 15 16 18 19 19 18 18 17 20 22
26 27 26 25 28 31 27 28 27 22 20 19 18 17 15 16 17 15 14 14 13 12 13 14 16 21 22 23 23 24 24 23
26 25 26 28 31 32 31 31 31 27 26 23 23 23 24 21 20 19 20 20 19 18 19 18 19 21 23 24 27 28 29 29
31 27 29 29 26 27 29 29 30 29 26 25 26 26 27 27 26 25 25 24 24 27 28 26 25 25 25 28 30 31 32 33
34 31 32 34 34 32 29 30 27 28 28 27 27 28 29 29 32 32 30 28 27 28 30 32 32 31 29 31 34 35 36 37
38 39 41 39 37 38 37 37 35 35 32 33 34 34 35 33 35 36 37 36 36 34 34 36 36 35 32 34 37 39 39 41
35 36 41 41 42 40 40 41 42 41 39 39 39 41 42 42 42 41 40 43 44 42 40 42 42 39 39 39 37 39 40 41

GFSFLT1_500_spd_072.txt.gz
Wind_Speed
11 21 19 19 16 13 13 12 11 9 11 10 11 14 10 5 12 28 39 40 32 27 22 26 25 24 28 28 26 27 29 29
8 21 15 15 14 14 13 11 10 9 11 11 13 15 15 13 19 26 25 36 34 33 30 29 34 30 26 31 32 28 32 33
6 17 12 15 14 14 14 10 8 10 13 16 15 12 16 19 20 22 19 19 27 31 36 35 35 35 32 28 34 32 28 32
6 12 12 15 14 13 12 9 8 12 17 15 13 6 9 19 19 19 19 20 20 22 27 34 38 37 35 31 34 29 27 28
8 10 12 14 15 12 11 9 9 14 12 12 10 5 10 16 15 12 12 13 19 24 22 29 36 33 30 30 31 31 28 30
9 7 15 14 15 13 12 9 9 11 9 8 7 5 4 10 11 13 12 14 21 25 28 28 28 29 27 26 29 30 33 36
12 11 17 17 17 15 13 11 9 7 9 6 6 4 2 4 8 11 12 13 18 25 25 29 25 26 27 27 28 26 25 28
15 14 16 20 20 17 16 14 12 8 7 6 4 2 3 2 2 3 7 15 11 15 16 23 25 27 27 24 24 20 23 24
15 10 18 22 21 18 18 17 16 12 8 5 5 3 3 3 5 5 6 8 12 16 18 19 24 23 24 24 23 25 27 29
14 12 17 21 19 19 19 18 18 15 10 7 6 4 5 4 4 3 4 6 7 8 18 19 18 19 21 23 24 26 24 25
20 17 16 20 22 23 21 21 19 17 14 10 9 7 6 5 4 4 4 5 4 6 7 17 22 25 26 27 24 24 22 19
14 13 15 19 23 25 24 23 22 19 17 13 11 11 11 10 9 8 9 7 6 6 6 11 14 14 14 15 16 19 20 22
19 19 21 21 23 26 26 26 25 24 20 17 16 16 14 11 10 9 9 9 7 7 11 13 13 16 18 18 19 21 24 24
19 19 18 18 26 28 29 29 29 30 28 21 20 21 20 18 14 13 13 13 13 14 14 14 15 17 19 20 21 23 23 24
23 20 21 22 24 30 33 31 31 31 31 28 26 24 25 25 22 20 19 17 17 19 21 21 21 21 21 22 24 26 29 31
27 23 25 23 22 25 31 34 34 32 27 27 29 28 28 27 26 25 25 24 24 24 25 27 29 29 28 28 31 33 34 34
37 30 30 30 27 27 28 25 25 26 27 28 27 28 30 31 31 31 29 28 28 28 28 29 29 29 30 32 34 35 37 38
31 30 33 35 34 32 32 37 39 37 33 31 31 30 32 34 34 34 33 34 34 34 33 34 33 33 34 37 37 38 37 38
45 39 36 36 40 41 43 43 42 42 41 39 38 38 37 38 39 40 40 40 40 41 41 41 42 40 42 42 41 42 42 41

GFSFLT1_500_spd_075.txt.gz
Wind_Speed
26 22 20 18 15 15 17 16 15 13 12 14 17 17 16 14 11 18 25 31 46 49 35 32 28 26 23 28 22 26 26 33
28 19 16 17 16 14 17 15 16 13 10 13 17 20 21 17 11 14 30 44 46 43 41 33 28 24 24 26 26 26 25 24
24 18 13 16 16 13 15 15 15 12 10 16 21 23 22 19 14 19 24 34 39 38 32 28 21 25 28 26 26 29 32 28
22 18 10 17 15 11 15 13 13 11 15 16 17 17 17 16 19 24 26 26 22 35 34 27 26 26 29 34 32 29 32 32
22 16 10 19 14 12 15 11 10 12 14 11 11 9 7 12 16 16 21 21 22 19 22 29 28 35 34 36 38 35 37 33
21 15 11 19 16 14 14 11 9 11 11 9 7 7 4 6 13 15 15 21 22 29 30 32 35 33 38 38 42 39 39 35
20 20 17 18 19 16 15 12 10 8 9 9 5 2 1 5 11 13 14 17 21 23 35 33 30 28 33 36 36 34 33 31
26 23 18 15 19 18 16 14 12 9 7 10 7 3 3 5 6 9 14 17 15 19 30 39 42 38 34 32 33 35 34 32
22 20 18 14 19 20 18 16 13 12 8 8 9 7 4 4 7 5 5 5 12 10 20 27 31 34 35 33 37 35 36 36
21 21 18 15 22 22 20 18 14 14 11 8 9 9 7 5 5 6 8 8 8 11 18 20 22 30 34 34 36 29 27 32
23 20 16 16 21 23 21 19 16 15 14 11 10 9 7 7 7 6 7 8 9 11 12 21 20 22 27 25 23 24 24 27
27 23 22 23 23 23 25 23 20 20 19 16 14 12 13 11 11 12 11 11 11 11 11 10 17 21 24 25 27 31 32 31
23 27 25 24 23 22 23 24 26 27 24 23 20 18 17 16 13 13 14 13 12 12 12 13 14 17 19 19 19 21 22 24
27 23 23 27 25 21 20 24 26 27 26 26 26 24 22 22 21 18 13 13 15 14 14 15 15 18 20 21 23 25 27 28
30 28 28 30 29 26 26 24 27 29 29 29 28 26 24 23 23 24 22 19 17 18 20 21 21 21 21 22 24 25 27 29
35 31 30 30 30 30 30 31 33 35 35 34 32 26 27 25 26 26 27 26 24 24 23 23 25 27 29 31 31 32 33 34
37 33 32 32 32 30 24 22 23 24 28 32 31 34 33 31 30 29 29 28 27 28 28 28 29 28 28 32 34 35 37 38
41 38 36 34 34 31 30 27 26 26 25 23 25 27 34 35 35 34 34 34 34 34 33 33 33 36 38 39 38 39 40 40
44 41 38 43 43 41 32 32 32 32 33 34 36 38 37 35 35 36 37 38 38 39 41 44 43 43 45 45 45 47 47 46

GFSFLT1_500_spd_078.txt.gz
Wind_Speed
32 27 28 25 25 20 19 20 16 14 16 18 20 19 19 21 25 23 24 23 26 41 49 50 48 40 27 26 25 25 25 29
38 33 31 30 29 20 16 18 16 14 15 18 20 21 26 26 25 23 23 23 28 30 53 49 49 35 30 24 25 24 26 28
36 31 35 32 30 18 15 15 15 12 13 17 23 27 28 28 24 21 21 22 27 38 49 54 42 32 28 22 25 26 24 25
29 34 33 31 26 14 16 15 13 10 11 18 19 17 19 18 19 16 12 21 27 38 54 49 36 33 26 25 24 24 26 27
30 30 30 28 25 12 15 15 13 8 12 13 13 14 12 11 6 13 16 16 20 31 39 38 39 23 18 20 25 27 29 28
27 27 20 24 19 12 15 14 13 10 8 8 11 11 9 7 3 9 11 12 17 18 21 35 30 25 24 23 26 28 33 31
28 29 27 23 20 13 15 14 13 11 7 7 8 9 7 3 3 4 8 11 13 18 20 23 34 33 28 27 28 31 34 36
31 31 32 28 22 15 16 15 14 13 10 6 6 6 8 5 2 4 6 10 14 16 18 25 29 22 29 28 28 32 36 37
29 27 31 29 23 19 16 16 16 16 14 9 6 4 5 7 6 6 6 5 7 12 15 17 27 30 28 32 33 34 34 32
25 27 28 26 24 21 18 18 19 18 16 13 8 7 5 7 8 8 8 8 6 7 11 13 26 35 28 31 34 37 34 33
30 29 31 30 27 25 21 17 20 19 19 15 12 10 8 8 8 8 8 8 9 10 11 12 16 19 23 22 29 35 35 33
33 28 30 30 31 27 21 19 23 23 20 16 15 13 12 10 9 10 11 11 11 12 12 14 18 19 21 20 20 23 22 23
23 28 31 34 31 25 20 23 22 21 20 18 18 17 17 16 14 11 9 11 15 17 17 16 16 17 19 21 22 21 20 21
31 33 33 32 28 24 21 22 20 19 21 21 21 21 20 18 17 16 15 14 13 13 14 15 15 17 18 22 23 24 26 26
36 31 31 28 26 25 23 24 22 22 24 24 24 22 22 20 19 19 19 19 19 18 17 17 18 19 21 23 25 27 29 30
39 34 34 28 28 27 26 25 26 29 30 29 29 27 27 27 25 24 23 23 24 23 23 22 23 23 24 27 28 29 30 32
41 36 33 30 33 33 31 30 32 30 32 34 29 30 24 28 31 29 29 29 29 29 28 28 28 29 31 32 32 32 32 34
39 39 38 36 38 35 32 34 34 29 20 22 16 16 27 25 29 33 33 34 33 34 34 34 35 37 36 36 37 38 40 40
46 42 43 39 36 37 35 33 33 29 27 27 28 26 26 28 30 30 32 37 38 35 36 37 39 38 39 40 45 46 48 47

GFSFLT1_500_spd_084.txt.gz
Wind_Speed
29 33 35 35 34 30 25 25 27 24 28 26 24 22 21 18 19 21 21 20 21 21 24 25 28 31 39 45 43 42 37 37
32 37 36 36 31 25 22 24 24 23 26 26 23 23 21 19 21 24 27 30 28 26 25 24 26 31 33 48 48 48 42 36
32 37 36 32 29 27 23 21 24 25 26 24 23 21 21 23 25 28 29 30 29 28 26 23 30 27 33 39 46 43 43 37
33 36 35 33 28 28 24 24 26 23 26 23 22 20 20 24 23 27 27 26 24 25 21 25 33 40 29 35 40 46 40 36
34 37 37 33 31 32 29 27 26 22 26 24 20 17 20 19 17 18 13 15 18 19 18 28 38 41 39 38 44 45 33 26
38 40 38 35 36 33 30 29 26 24 27 23 19 18 16 14 11 10 6 10 11 11 28 32 30 41 43 42 51 44 30 24
38 39 36 34 38 32 29 27 26 26 27 22 20 17 13 10 7 9 7 4 3 9 11 21 33 35 34 41 49 44 32 27
33 33 35 36 37 25 26 24 28 26 29 22 22 15 11 8 6 5 4 4 6 6 7 6 22 35 36 41 43 41 33 32
28 29 34 35 26 24 27 28 27 27 27 23 22 15 11 7 6 4 4 2 3 6 6 9 6 26 35 36 33 28 28 23
31 33 34 32 30 29 30 28 27 25 27 23 22 16 11 8 6 2 1 1 1 1 3 6 11 15 18 25 30 28 24 27
34 36 36 39 33 31 31 29 28 24 24 23 22 18 13 8 6 3 0 1 1 2 3 3 7 12 17 20 16 21 20 17
34 36 39 41 36 33 36 33 31 25 23 24 22 19 16 11 8 7 5 2 3 3 4 5 7 8 12 14 20 21 20 21
40 43 45 35 36 38 39 36 36 27 23 23 22 20 18 14 12 12 11 7 5 4 5 7 8 10 11 12 14 17 17 16
42 43 38 31 30 38 38 39 37 28 24 23 22 21 20 19 18 18 16 14 12 10 9 9 10 12 13 15 12 10 11 13
42 40 33 35 35 39 41 41 39 26 25 23 22 23 24 24 23 21 20 19 18 17 16 14 13 12 10 10 11 14 16 17
42 41 39 41 35 43 42 42 38 23 22 24 26 26 27 27 25 24 22 21 22 22 22 20 19 16 14 15 16 17 19 20
42 42 40 38 39 41 46 42 36 32 34 31 28 27 25 25 26 27 26 26 25 25 24 23 22 21 21 21 23 23 24 26
39 38 39 40 36 43 44 41 42 40 39 32 31 28 26 21 28 31 29 28 24 21 22 23 24 24 27 28 29 30 31 31
33 35 35 31 36 44 44 43 43 44 41 36 34 30 28 24 19 26 26 29 30 27 28 27 26 26 27 29 31 32 35 37

GFSFLT1_500_spd_087.txt.gz
Wind_Speed
29 29 29 32 31 29 34 33 31 26 27 25 26 26 27 25 24 22 23 23 22 22 23 24 25 28 28 28 39 38 40 39
32 32 31 35 32 32 35 31 27 25 24 26 24 24 24 23 24 21 24 24 25 28 28 27 24 27 25 27 37 41 42 37
34 32 36 35 33 35 36 30 28 22 25 23 22 24 22 23 23 22 25 28 32 34 36 35 31 30 28 29 28 36 39 41
32 34 39 35 35 34 33 29 29 25 27 22 21 22 23 23 22 24 27 29 33 35 36 36 33 31 28 26 30 30 38 39
35 38 39 38 35 32 33 32 31 28 27 22 21 21 24 21 21 24 24 26 24 27 31 33 32 34 33 35 28 30 33 38
37 40 41 41 37 36 34 34 34 29 29 24 21 20 22 19 22 20 20 17 16 18 21 28 32 30 41 34 36 28 28 36
37 40 42 47 46 41 36 36 36 31 31 27 21 21 20 18 21 19 13 14 13 13 15 21 33 31 36 31 38 37 33 38
34 38 37 42 49 37 34 38 38 37 34 27 21 22 19 20 18 16 9 10 11 11 10 13 17 31 31 38 38 40 33 42
24 26 32 37 35 37 36 40 39 34 34 25 22 22 19 19 15 13 10 8 7 10 9 10 8 24 29 34 41 39 41 46
17 21 26 30 34 32 38 37 37 35 31 25 23 22 21 20 13 11 9 8 8 4 6 6 8 9 22 25 36 40 37 44
21 22 25 31 31 34 35 36 36 31 29 23 23 23 23 22 14 10 9 8 7 7 6 5 8 9 11 20 29 24 35 38
28 31 28 31 32 36 36 37 31 30 26 21 22 23 24 23 17 13 10 10 10 10 8 6 6 9 11 11 10 14 25 27
30 31 35 35 39 42 43 33 30 31 29 24 21 22 24 23 19 17 14 12 10 8 10 10 11 9 11 12 15 17 23 21
32 33 37 41 47 48 43 36 35 34 29 24 22 20 23 23 23 20 19 17 15 12 10 9 11 13 14 14 15 16 20 23
37 39 41 41 42 40 31 32 37 39 34 29 23 21 22 25 26 25 24 22 20 18 15 14 11 9 10 12 14 16 18 19
41 42 43 44 48 44 37 29 41 39 36 29 24 24 26 27 30 28 26 25 23 22 22 20 15 16 16 15 16 17 19 21
42 45 44 46 48 42 34 34 41 40 35 34 30 30 27 27 30 30 28 28 27 26 25 24 22 23 22 22 23 23 21 21
39 44 45 44 39 35 35 38 44 42 39 37 37 35 31 28 30 30 30 31 33 32 31 29 28 27 27 27 27 27 27 26
34 40 44 44 42 43 42 40 39 46 44 40 42 39 36 34 33 34 34 29 26 32 36 33 31 29 30 30 30 30 30 31

GFSFLT1_500_spd_090.txt.gz
Wind_Speed
46 41 38 37 36 36 35 30 29 35 36 35 32 25 28 23 25 24 23 25 26 22 21 20 21 23 24 28 22 28 39 41
42 42 40 37 38 40 36 25 29 32 32 28 27 27 24 23 25 22 22 23 25 23 23 24 24 24 24 26 23 24 35 41
43 42 39 38 39 43 30 26 31 29 30 25 29 26 20 22 24 20 21 24 26 26 28 31 32 32 29 24 26 25 38 39
43 42 42 40 43 43 32 28 30 29 26 30 29 23 20 20 21 18 22 24 28 31 32 35 37 36 35 33 28 25 40 38
42 41 42 39 41 40 35 32 32 30 26 33 26 23 18 20 19 19 22 25 28 28 28 31 35 35 36 36 31 30 33 38
38 40 40 39 40 41 37 36 32 31 28 33 27 22 19 18 18 19 21 24 25 24 23 22 22 28 32 35 32 38 35 32
37 39 39 40 42 42 39 41 33 32 30 33 30 22 18 16 18 19 21 22 23 21 19 17 19 15 28 36 35 37 38 32
33 36 38 39 40 41 45 42 37 33 31 32 30 24 19 17 19 18 20 20 19 16 16 16 16 18 24 35 39 37 40 34
31 33 35 37 34 40 44 30 40 35 33 32 31 24 20 18 18 17 20 18 18 14 14 16 15 18 18 36 32 33 40 37
27 27 26 26 33 41 23 25 37 36 36 37 32 21 22 18 20 16 21 18 17 15 10 10 12 11 10 26 31 36 40 30
24 22 20 23 25 20 23 33 35 36 37 35 32 25 20 19 22 18 21 18 16 12 11 10 10 9 6 17 26 33 37 37
26 23 21 20 21 24 27 34 36 40 41 34 30 21 21 21 22 20 21 18 16 13 11 12 11 9 9 6 14 25 27 29
26 25 26 27 25 27 30 32 32 39 37 32 27 22 20 22 21 22 21 19 17 15 15 14 12 9 8 8 7 8 18 23
26 27 27 34 29 30 30 34 37 36 31 30 27 24 20 21 21 22 22 22 19 17 13 11 11 11 10 9 13 13 15 17
23 27 28 33 34 32 36 41 39 39 34 31 28 26 20 21 21 21 23 23 21 20 18 13 11 10 12 14 13 14 17 22
22 25 30 35 37 38 42 47 46 39 35 32 31 28 22 21 24 24 25 26 26 24 24 21 19 18 16 14 14 14 15 18
25 26 33 38 38 42 45 42 31 39 38 31 33 32 27 26 27 27 26 28 28 27 26 26 25 25 22 21 19 18 18 19
26 24 31 41 42 42 33 36 40 30 27 37 35 33 32 30 30 29 28 29 30 31 31 30 30 30 29 28 27 27 26 26
19 24 28 42 48 44 44 42 38 37 35 32 37 38 36 35 35 34 31 29 32 34 33 33 34 36 35 34 34 33 33 33

GFSFLT1_500_spd_096.txt.gz
Wind_Speed
51 51 52 57 56 53 50 49 44 43 41 37 41 37 35 35 37 36 34 27 23 22 26 26 25 22 20 20 21 18 24 27
44 47 49 50 52 52 52 51 44 42 38 35 40 37 35 35 39 37 31 25 24 25 27 25 24 23 21 22 19 21 20 21
40 44 43 49 49 42 49 49 47 41 37 36 42 41 35 38 40 34 28 25 25 27 28 25 24 24 24 25 26 26 25 22
39 46 48 46 42 41 42 45 44 40 36 37 37 41 36 38 37 29 28 26 26 28 28 26 24 26 27 29 32 33 33 32
42 40 50 48 43 41 41 43 40 39 36 34 37 38 33 36 33 33 27 28 28 28 27 25 24 28 30 30 32 34 37 36
34 35 40 47 38 37 37 41 36 37 35 33 36 37 35 35 37 32 27 31 29 29 26 23 26 26 27 29 31 32 34 34
21 23 35 29 29 32 37 38 34 33 38 35 35 37 37 37 37 30 29 32 32 28 25 24 23 23 24 27 29 29 34 36
18 19 26 29 32 32 32 34 37 37 39 37 39 39 38 37 38 33 32 31 31 28 24 24 22 21 22 23 26 30 26 32
21 14 26 29 30 32 33 32 34 36 32 35 36 39 38 39 39 35 33 32 31 28 23 23 21 21 22 26 24 27 23 25
22 18 25 26 29 32 33 31 33 40 38 41 37 40 40 41 38 36 35 32 30 28 23 20 19 19 22 25 23 28 31 30
21 19 23 22 26 29 29 30 34 37 37 38 36 38 41 43 37 36 36 31 29 27 21 16 17 18 21 21 23 25 29 29
24 24 20 27 27 30 33 32 32 29 32 49 44 40 45 42 40 38 32 29 30 25 19 14 15 17 19 20 18 23 21 30
24 25 23 28 28 27 28 26 28 30 25 30 28 41 48 43 40 36 31 29 28 24 21 15 16 14 14 15 14 18 14 25
20 27 23 25 27 28 28 25 26 27 30 24 26 38 34 40 38 33 28 28 27 24 21 18 17 14 13 11 12 13 13 22
17 19 21 28 29 32 31 28 25 24 26 29 28 29 34 36 37 32 26 26 26 25 22 22 17 15 14 12 8 10 10 9
14 20 20 24 29 33 35 31 29 25 25 27 28 31 33 36 38 31 31 30 27 26 23 22 20 18 16 15 13 10 10 12
14 13 18 17 24 31 34 31 29 27 27 28 29 30 35 38 38 35 36 29 31 28 25 24 23 22 21 19 18 17 14 12
14 14 15 19 20 25 31 29 28 31 29 31 33 34 37 38 32 35 39 36 28 30 28 25 26 25 25 24 24 22 21 19
16 15 15 17 18 19 23 26 29 30 29 30 33 33 37 35 29 40 42 43 38 28 36 28 28 27 28 28 28 26 26 26

GFSFLT1_500_spd_099.txt.gz
Wind_Speed
44 45 48 49 56 58 56 56 53 46 47 47 46 40 39 40 41 40 33 35 32 30 26 28 25 26 25 26 25 24 14 19
46 48 49 51 51 51 54 56 52 51 49 47 44 42 39 41 39 39 34 36 30 29 27 27 25 25 25 25 24 21 20 20
52 50 52 56 54 51 53 53 52 49 49 47 44 39 39 41 40 43 38 35 30 28 29 26 25 26 26 26 25 24 23 23
48 48 48 56 54 55 55 55 53 51 48 48 43 43 42 43 39 40 37 31 32 27 29 26 26 27 27 28 27 27 28 28
46 46 53 56 49 53 52 51 52 51 49 47 44 42 39 35 37 37 39 35 31 25 29 27 26 29 30 31 31 31 33 33
46 48 46 47 44 51 50 51 46 45 41 42 44 42 40 38 39 40 40 35 27 27 30 29 28 30 32 33 33 32 31 31
37 32 33 32 37 42 50 43 44 41 42 38 44 42 41 40 40 42 40 32 27 29 32 31 30 29 34 33 30 29 30 30
33 29 30 28 35 33 38 46 36 34 36 34 42 42 45 45 43 45 36 32 30 31 35 32 32 29 35 31 28 26 26 27
38 23 28 23 28 32 33 44 44 35 34 39 43 47 46 43 46 39 35 35 35 34 34 33 32 29 34 30 26 25 25 25
30 26 29 20 24 26 29 33 40 42 43 43 42 43 46 44 41 38 35 37 38 35 34 33 31 29 34 27 27 24 23 24
25 27 25 20 22 31 28 35 34 37 39 40 39 43 45 42 39 41 39 41 40 36 35 32 31 28 32 27 26 26 25 27
19 23 23 22 26 21 26 29 33 33 36 39 37 42 47 43 42 43 42 43 38 36 35 32 30 28 28 24 25 26 26 23
19 20 23 22 23 27 25 28 28 32 33 33 30 34 45 40 42 44 44 41 38 36 34 30 31 30 26 23 22 22 21 17
16 13 20 25 21 25 26 27 28 32 29 27 23 26 36 48 45 43 43 41 35 35 35 31 32 32 26 22 19 17 15 16
18 19 20 23 20 24 25 24 22 22 22 22 21 24 29 36 46 37 43 40 37 36 34 33 33 32 27 24 18 13 13 10
11 14 16 17 20 27 27 25 25 25 22 21 22 24 25 31 40 34 40 40 38 37 36 34 32 31 29 25 20 14 14 9
7 10 12 20 20 23 29 28 27 26 26 24 22 24 26 32 30 34 39 41 38 38 34 33 33 31 30 26 23 19 16 14
10 8 8 13 18 19 22 28 27 28 24 24 21 23 24 28 29 32 37 38 38 38 34 34 31 32 32 27 25 23 20 18
9 11 12 12 13 18 22 22 26 25 21 17 20 20 24 24 30 35 38 38 39 41 39 36 32 32 33 32 29 27 26 24

GFSFLT1_500_spd_102.txt.gz
Wind_Speed
49 53 55 56 58 58 57 56 55 56 55 49 50 49 48 45 42 40 40 41 39 35 34 27 25 25 28 26 27 24 23 22
49 50 52 54 55 55 54 55 57 55 54 55 52 48 45 45 45 42 42 42 39 33 33 27 24 25 27 27 24 23 23 24
49 48 48 49 50 52 53 55 56 55 54 53 52 48 46 44 48 46 44 41 37 35 31 28 24 26 27 27 23 23 24 26
50 50 51 52 51 51 53 55 56 55 54 56 52 51 50 50 52 47 45 38 38 36 32 29 25 27 26 25 23 23 26 27
53 53 54 55 56 55 58 58 58 55 56 57 54 50 48 47 48 45 46 39 40 39 37 30 26 27 26 24 25 24 27 30
57 59 59 61 59 57 58 60 60 57 56 57 56 51 46 47 48 45 47 39 38 42 37 31 27 28 24 24 27 26 28 32
56 56 57 57 54 53 53 54 57 56 54 53 52 48 50 49 48 47 47 43 45 42 37 34 28 27 25 25 28 30 28 34
50 50 46 42 46 43 45 48 49 51 45 48 47 41 46 48 45 49 48 45 46 39 35 36 31 28 26 27 28 31 27 32
42 41 35 36 30 33 30 36 45 42 48 54 47 42 34 40 44 51 50 48 48 40 42 39 32 31 26 27 29 30 28 32
35 34 34 34 27 29 30 38 37 38 40 39 42 43 50 42 49 57 54 53 45 44 44 39 33 33 29 27 28 31 29 33
22 22 26 26 26 24 23 29 28 41 43 44 40 45 43 44 49 52 51 47 44 45 43 40 35 36 30 27 29 32 30 32
21 21 16 22 22 19 23 31 28 24 36 49 39 41 41 39 47 53 52 46 45 44 42 42 38 37 32 28 30 32 29 32
16 18 15 24 22 20 23 22 22 27 30 46 44 45 46 45 43 50 51 48 48 45 43 43 38 39 31 31 31 31 28 28
12 13 9 15 22 21 23 24 17 18 22 29 34 35 40 42 43 51 49 51 47 46 44 42 38 34 32 34 31 31 27 23
12 14 13 12 13 23 17 18 18 16 21 25 25 24 16 30 29 27 55 54 48 47 45 39 36 34 34 34 31 31 27 23
5 6 7 11 13 16 17 16 16 16 13 19 16 14 14 18 18 37 43 48 44 35 41 37 36 34 34 35 32 31 29 25
2 5 8 9 10 13 12 19 17 17 15 15 17 16 15 15 19 21 45 34 37 36 40 39 36 33 34 36 34 31 30 28
5 6 6 7 9 10 13 12 16 17 18 19 22 19 17 19 20 27 37 31 35 36 38 36 34 34 35 35 34 33 30 29
6 4 6 8 10 8 10 14 12 19 24 23 23 20 23 19 21 25 34 27 30 36 37 36 37 38 36 35 34 33 32 31

GFSFLT1_500_spd_105.txt.gz
Wind_Speed
52 54 54 56 58 59 61 62 59 58 58 58 57 54 49 47 46 44 43 41 40 42 40 40 38 32 27 21 21 23 21 24
47 48 49 50 52 54 57 60 62 62 60 60 61 60 49 46 43 43 45 44 43 43 43 39 40 34 27 22 21 22 21 23
43 43 45 47 49 50 53 55 58 60 60 60 62 61 53 48 45 46 47 48 45 44 42 37 41 34 26 24 22 23 20 22
44 46 47 48 48 48 51 54 55 54 55 57 58 59 58 54 49 45 46 48 47 44 43 40 41 33 28 27 23 23 21 21
48 49 51 52 52 53 55 56 55 54 56 58 57 52 53 53 47 46 48 46 48 46 43 40 42 38 29 29 26 23 24 22
51 53 54 54 55 56 58 58 59 57 57 59 59 55 52 55 49 46 50 50 50 46 44 44 44 44 30 31 27 25 25 23
50 51 51 51 54 56 57 59 60 61 60 59 60 58 53 56 50 47 48 49 50 45 47 48 47 41 31 32 29 27 27 24
48 49 51 52 54 54 50 53 56 59 57 56 59 56 51 54 51 47 47 50 47 41 47 43 45 49 36 34 31 28 28 26
49 49 48 43 42 38 39 42 46 47 49 51 53 51 50 52 49 48 48 48 47 47 45 47 43 47 38 35 34 29 28 28
52 47 41 39 44 39 37 34 35 39 38 43 44 44 50 50 46 51 44 47 43 50 49 52 51 48 38 37 37 31 28 27
45 42 41 39 29 28 27 30 28 31 31 35 43 46 49 49 50 45 49 51 55 55 50 51 49 44 37 39 38 32 29 29
40 42 31 23 20 22 22 21 22 23 32 32 40 48 56 54 49 49 44 48 53 46 49 53 49 42 41 40 40 34 30 31
30 27 24 25 21 19 20 18 19 24 29 29 40 42 38 36 44 54 48 46 45 46 51 52 48 47 43 42 40 34 33 32
24 23 15 19 15 21 13 15 21 16 15 19 27 35 38 39 41 42 44 40 42 46 51 52 49 47 45 41 38 36 34 33
19 15 10 6 6 11 19 15 15 18 15 13 25 36 41 36 37 40 41 45 48 50 50 49 48 47 48 40 37 37 34 33
12 6 6 3 4 8 11 20 12 13 11 10 15 18 25 30 34 40 42 44 42 49 47 43 48 48 48 38 34 35 32 33
7 3 3 3 5 3 6 11 15 12 12 7 13 20 19 15 12 19 24 38 37 45 48 47 46 50 45 37 34 34 32 33
4 4 4 5 3 5 6 7 7 16 13 14 12 12 12 13 13 11 11 25 42 43 47 46 53 45 43 36 35 34 32 34
5 4 4 4 4 4 3 5 7 12 18 17 16 16 16 14 12 11 16 22 24 35 37 42 36 39 38 36 35 33 32 34

GFSFLT1_500_spd_108.txt.gz
Wind_Speed
45 47 47 49 51 54 57 59 60 58 58 59 59 57 56 55 49 49 49 48 47 44 43 42 40 37 37 34 30 28 25 24
46 47 48 49 50 51 53 56 57 59 60 60 59 58 56 56 56 49 49 51 52 47 42 46 41 39 37 37 31 30 27 25
43 44 45 44 44 45 46 47 50 53 56 57 58 58 58 57 56 56 50 52 54 52 44 47 43 41 38 37 31 31 29 27
41 42 42 42 42 43 44 46 48 49 51 54 57 57 57 56 57 56 52 48 50 52 51 47 45 42 40 38 34 32 30 27
43 43 43 44 45 45 46 48 50 52 54 55 55 57 56 54 56 53 50 49 47 52 52 48 46 44 43 40 38 33 32 27
44 45 45 47 47 49 50 52 53 55 58 60 59 57 56 56 57 54 49 49 48 53 52 50 47 46 44 45 42 37 34 29
44 46 49 49 49 50 50 51 52 54 58 61 62 61 59 59 58 54 51 49 46 48 51 51 46 46 46 45 47 42 37 30
42 44 46 48 49 49 50 53 54 58 60 62 63 59 58 60 59 56 51 51 48 45 50 52 48 49 44 46 48 45 40 33
41 44 47 48 49 51 53 55 58 53 55 58 59 57 52 53 58 56 51 53 49 47 53 50 46 49 47 46 50 51 38 33
44 45 47 48 51 51 51 48 47 42 43 41 41 42 44 46 48 49 49 51 48 46 51 52 51 46 47 49 53 55 45 33
46 48 48 50 51 46 43 43 37 37 39 40 37 37 39 43 46 49 48 49 49 48 47 52 55 53 47 50 50 45 32 34
48 48 50 48 42 39 39 34 32 32 31 29 29 34 35 44 43 46 50 50 50 46 48 52 54 49 49 45 46 42 34 34
47 48 42 38 35 34 27 27 14 23 23 18 21 29 39 35 40 43 51 52 52 47 51 50 51 48 49 48 44 38 38 40
44 37 31 32 29 25 25 19 22 19 18 21 23 25 30 36 43 46 51 49 50 46 47 49 52 51 52 46 47 41 42 42
30 31 30 24 18 16 15 19 15 14 14 9 13 19 22 37 41 46 55 56 48 48 44 46 48 49 51 46 46 42 45 41
27 26 23 16 11 5 10 11 16 13 12 8 10 11 22 24 30 26 33 36 41 49 51 48 49 51 47 51 47 46 45 43
24 18 11 8 3 5 7 9 13 15 13 14 19 17 18 25 24 32 28 31 37 39 40 40 43 44 45 40 41 42 47 47
16 9 3 3 5 5 7 9 12 15 14 18 12 9 14 20 21 22 27 28 29 34 34 38 38 42 40 42 41 47 52 48
9 3 3 4 6 5 4 7 8 9 17 18 15 8 15 15 15 15 14 14 21 35 41 35 43 41 41 48 39 45 52 41

GFSFLT1_500_spd_111.txt.gz
Wind_Speed
47 42 45 46 48 50 50 51 51 52 54 56 57 58 57 56 52 49 47 46 46 46 47 47 51 48 45 43 40 36 29 28
47 45 46 46 46 47 49 51 53 54 56 56 57 57 57 56 55 52 51 50 47 48 49 48 52 49 46 46 44 37 32 30
47 47 44 44 45 46 47 49 51 54 56 58 57 56 56 55 53 54 54 51 47 45 48 49 51 54 48 49 47 39 34 32
47 46 45 44 44 45 46 46 46 49 51 52 53 53 53 52 52 51 51 49 48 44 44 47 53 52 51 51 47 46 38 33
45 44 43 43 43 44 45 45 45 47 47 48 49 49 49 50 52 52 51 52 52 50 48 47 50 51 53 51 48 47 44 36
43 44 44 44 44 44 45 45 47 49 48 50 51 52 54 54 56 56 54 54 52 50 48 47 50 52 53 52 49 48 45 41
43 44 44 44 45 45 45 47 49 50 51 53 55 56 58 59 60 61 61 60 57 49 50 46 48 52 53 52 49 48 49 44
41 41 42 43 44 46 47 48 49 51 53 55 56 58 59 61 61 62 62 62 61 52 49 48 48 49 49 51 52 49 56 46
38 40 41 43 43 44 45 46 48 52 55 57 59 62 64 64 64 65 64 63 61 56 51 49 49 47 48 50 52 50 47 41
37 39 40 42 43 44 45 47 50 54 58 61 63 63 60 60 61 66 68 66 62 57 53 51 49 48 50 49 52 51 46 41
38 39 41 43 45 46 48 49 52 57 58 54 50 51 51 53 48 50 56 59 62 57 52 50 48 48 49 50 51 54 53 51
41 44 45 47 48 49 49 51 54 51 45 45 38 41 43 44 43 47 49 53 57 54 52 50 47 47 49 50 53 52 52 51
45 47 49 49 51 51 51 52 43 44 41 38 32 30 31 38 37 46 49 48 48 47 50 53 50 49 49 51 49 54 50 47
50 52 53 52 53 52 49 42 39 28 30 22 22 27 23 24 24 29 44 48 47 48 49 50 49 47 47 48 48 51 49 50
53 55 53 49 45 39 37 35 31 27 19 15 21 22 20 17 22 20 26 41 42 46 51 49 45 45 44 45 45 45 47 46
48 45 35 36 32 32 32 26 24 23 25 19 16 22 21 14 20 25 27 32 36 44 46 50 51 49 50 47 45 48 47 48
35 26 24 26 27 21 10 16 17 18 20 19 19 15 16 21 17 20 23 30 38 42 45 52 48 46 46 44 46 47 48 46
19 12 9 11 9 7 6 9 13 14 17 19 18 20 14 11 14 16 19 29 23 25 30 37 41 44 44 41 41 44 47 44
11 6 6 6 8 8 7 8 10 13 13 18 12 14 8 6 20 12 17 23 28 28 27 29 35 36 43 43 48 46 44 45

GFSFLT1_500_spd_114.txt.gz
Wind_Speed
49 49 49 40 46 48 48 48 48 51 51 51 52 51 51 51 51 51 52 48 46 44 44 42 41 44 43 45 44 43 37 38
56 50 43 40 43 45 47 47 48 48 50 51 52 53 53 53 54 54 53 55 49 48 47 45 40 43 43 48 48 46 40 39
56 54 42 43 43 42 43 45 47 48 49 49 51 52 53 53 53 53 53 53 53 50 48 45 43 42 45 45 50 47 44 41
57 49 48 47 44 41 41 42 44 46 47 48 49 49 51 53 53 54 55 53 55 55 51 48 48 43 45 46 49 50 45 44
53 52 51 48 49 44 43 43 44 45 46 47 49 49 50 51 51 51 51 50 51 51 48 46 49 46 47 47 48 49 48 49
43 46 46 46 46 45 45 45 45 46 47 47 48 48 50 51 51 52 50 50 49 50 48 48 47 48 47 50 49 50 51 51
44 43 43 45 45 46 46 45 45 45 46 47 47 48 49 51 52 54 54 55 54 53 53 53 49 46 47 48 51 51 53 53
35 38 41 43 44 45 46 45 44 45 45 46 48 50 51 52 55 56 57 59 60 58 58 56 54 49 47 50 52 51 52 54
35 39 41 42 43 44 43 43 43 43 43 44 46 49 51 53 56 58 60 62 62 62 61 60 57 52 52 51 52 51 52 53
43 43 42 41 41 41 42 43 44 44 45 47 49 51 53 57 60 63 64 65 66 66 65 62 63 56 56 55 53 50 51 52
35 34 36 38 40 41 42 44 45 46 48 52 53 56 60 61 63 62 62 63 66 71 73 71 65 60 57 55 53 51 53 53
37 39 39 39 40 41 43 45 47 49 52 54 56 59 61 56 49 50 47 47 54 56 58 65 69 62 57 55 52 49 53 52
37 36 37 39 41 43 46 48 51 53 55 57 57 54 47 45 43 44 42 39 42 45 46 52 57 56 57 53 52 51 52 50
39 38 40 43 47 49 52 54 55 55 55 49 40 34 37 39 33 30 30 34 42 47 48 46 48 52 50 51 52 51 50 52
40 44 47 50 53 55 58 54 50 46 40 34 29 28 31 31 26 24 23 21 27 40 51 45 44 47 54 51 52 51 51 49
45 48 51 53 52 50 40 33 28 32 29 26 29 22 15 13 19 30 20 23 20 16 40 41 42 41 43 45 48 49 49 49
50 48 42 35 29 20 23 25 15 16 17 23 23 26 22 26 20 22 15 19 19 17 27 36 30 33 41 40 44 47 49 43
39 31 21 13 11 14 14 11 15 12 11 16 16 18 19 20 15 17 16 18 13 16 20 33 37 41 45 46 44 44 44 46
20 14 13 11 11 8 10 13 9 8 9 6 8 15 19 12 11 11 12 11 21 22 15 17 25 37 44 45 44 44 46 47

GFSFLT1_500_spd_117.txt.gz
Wind_Speed
59 57 55 51 50 43 42 46 46 44 45 48 51 53 52 51 50 49 47 50 45 44 40 39 42 45 46 46 42 41 42 39
63 60 60 59 56 43 47 47 46 45 44 46 49 51 52 53 53 52 49 46 50 46 48 44 43 47 48 48 48 45 42 41
57 64 60 62 59 43 48 47 45 46 45 46 48 50 50 51 52 52 52 51 50 50 53 55 47 54 54 50 51 48 45 43
53 64 60 56 50 45 50 47 46 45 46 46 46 48 49 50 51 52 52 52 51 52 51 51 51 52 59 54 50 52 51 47
53 52 49 42 41 49 50 50 47 46 46 47 47 47 48 48 48 49 50 52 51 52 53 51 50 51 52 54 58 50 49 52
50 41 35 31 39 45 44 45 45 45 46 46 47 48 48 48 48 49 50 52 52 52 53 53 52 52 52 54 49 54 56 56
50 41 33 35 38 41 42 43 45 46 47 46 46 47 47 48 49 50 51 52 52 52 53 54 54 54 53 52 53 56 57 57
54 53 37 42 40 41 43 45 45 46 46 46 46 47 48 48 50 51 51 51 53 53 55 56 56 57 54 53 55 56 57 57
50 54 42 39 40 42 44 45 45 46 46 46 46 47 47 48 49 50 51 52 53 56 57 59 60 60 59 58 59 58 57 56
46 45 38 38 39 43 47 46 44 43 42 42 44 44 45 46 48 50 52 54 56 58 61 62 63 64 62 61 60 61 60 54
33 38 43 50 51 51 48 45 44 43 43 43 44 45 48 50 53 55 58 60 62 63 65 68 69 69 66 65 64 58 59 54
44 45 46 44 46 40 39 41 43 44 45 46 48 50 53 56 57 59 62 64 66 69 64 63 68 72 70 68 65 63 60 53
33 39 43 39 36 38 39 42 43 45 47 49 51 53 55 57 60 61 62 54 49 47 48 49 52 55 55 62 67 66 58 52
41 46 41 39 40 40 40 42 45 49 52 55 57 61 61 57 53 49 42 37 37 42 46 46 45 45 44 46 52 55 60 53
38 39 42 44 44 43 44 48 51 53 55 55 51 46 43 39 38 37 36 31 38 31 35 35 38 45 45 44 46 48 51 54
39 40 41 42 44 46 49 51 51 40 28 25 24 24 23 28 25 21 26 35 29 22 19 25 34 39 37 39 39 46 49 54
45 45 45 46 47 48 45 30 20 17 17 14 15 14 20 19 30 35 31 27 29 25 16 23 19 26 37 41 40 44 49 50
49 48 46 41 33 20 14 14 16 16 12 14 13 6 5 11 15 17 21 22 20 11 12 11 10 11 16 36 30 38 42 45
44 41 29 18 14 13 11 14 13 9 8 11 15 10 8 11 18 13 12 14 17 20 14 5 13 24 27 24 26 26 29 39

GFSFLT1_500_spd_120.txt.gz
Wind_Speed
76 71 65 59 56 55 53 55 51 52 50 46 48 48 50 51 51 51 48 41 45 34 37 47 43 42 41 40 39 42 45 43
75 70 66 65 63 53 48 47 47 51 53 52 50 50 50 51 52 51 50 48 45 48 49 47 46 48 43 41 43 48 48 47
65 60 66 71 69 65 59 48 48 47 53 53 51 50 49 49 51 50 49 49 49 51 52 51 50 44 48 43 42 45 50 51
57 56 60 65 63 56 50 46 45 45 51 49 50 50 51 51 50 51 51 51 51 51 52 52 52 48 48 44 47 48 47 49
62 64 55 55 54 48 45 43 40 44 50 50 49 49 49 50 50 50 52 53 52 53 53 53 53 53 51 48 49 47 44 57
53 53 56 48 49 46 45 46 46 43 51 50 50 50 50 50 51 51 51 53 54 53 53 53 52 53 54 54 53 52 51 53
46 51 48 49 52 52 48 43 41 43 47 48 49 50 50 50 51 51 52 54 55 57 57 57 57 56 57 56 55 55 55 53
35 38 43 49 52 52 45 43 41 46 46 45 48 50 51 52 52 52 52 53 55 56 57 57 57 58 58 57 57 57 56 57
36 35 47 59 53 51 53 46 46 44 45 46 49 51 52 52 52 52 52 53 54 56 57 58 57 57 58 60 60 60 60 58
33 37 47 53 53 59 58 56 55 45 43 47 52 54 52 52 51 51 51 52 53 54 56 58 59 59 59 61 63 62 63 61
24 26 27 43 48 47 47 50 49 50 57 57 53 50 49 47 47 49 50 51 52 54 55 57 58 60 62 64 64 64 62 63
33 35 39 30 31 39 45 46 50 55 54 49 45 44 44 45 47 49 50 52 54 55 57 59 62 64 67 69 69 69 69 67
39 38 38 39 41 40 42 47 47 44 36 41 43 46 49 51 53 54 54 54 56 56 59 61 65 69 73 75 77 81 80 78
40 36 40 43 44 46 51 51 46 41 42 45 48 51 53 55 56 58 61 62 63 66 68 68 64 58 54 54 57 57 63 62
31 34 40 48 49 47 46 43 44 47 48 51 53 54 57 60 61 63 64 65 63 58 52 45 40 38 41 47 53 52 49 55
42 41 39 44 45 46 44 44 45 46 48 50 52 42 31 27 25 26 29 29 34 34 33 31 34 40 38 42 44 44 46 44
42 40 39 40 40 41 42 43 43 44 41 29 27 21 20 18 21 20 17 29 28 29 27 29 34 27 26 26 35 34 41 50
44 45 44 43 42 42 40 37 30 23 22 23 24 19 22 17 9 10 17 14 16 21 19 25 21 19 15 12 17 26 29 38
49 48 47 44 40 33 23 19 16 12 14 14 17 17 20 12 8 12 12 14 13 12 18 19 11 12 12 9 12 16 25 29

GFSFLT1_500_spd_123.txt.gz
Wind_Speed
66 66 68 69 68 67 62 59 59 59 60 57 54 54 55 56 52 54 55 54 52 50 49 54 49 60 66 53 50 51 45 44
72 73 75 77 77 74 68 61 57 56 56 59 59 54 54 55 56 55 56 58 51 49 50 50 48 31 64 53 54 52 51 50
68 72 71 72 71 69 61 52 52 52 53 53 56 55 54 56 57 56 56 59 55 51 48 50 49 43 47 41 37 44 44 48
55 56 61 62 60 58 60 57 51 44 47 52 58 54 57 58 56 56 58 58 55 50 49 51 48 44 46 46 44 43 48 46
42 47 57 66 60 57 60 56 49 47 45 54 51 50 56 59 56 55 57 59 58 51 50 50 51 50 49 51 50 51 47 51
43 45 51 62 56 63 53 53 47 45 46 43 40 45 54 59 57 56 56 57 60 57 49 51 51 52 51 52 53 53 50 50
40 43 43 41 43 45 50 50 47 43 37 38 41 46 54 59 55 56 56 56 56 60 56 53 52 52 52 52 53 54 54 53
38 37 38 41 41 43 46 51 53 47 46 41 44 47 48 51 54 56 55 55 57 59 62 60 57 57 56 56 57 58 55 55
29 39 42 45 37 38 36 45 45 50 47 44 42 39 37 38 41 50 55 56 57 58 60 61 60 58 57 56 57 58 60 60
24 16 30 26 44 40 43 59 51 44 49 46 43 46 48 46 47 55 59 54 56 57 58 60 61 61 59 58 58 58 60 60
31 28 33 18 18 23 28 30 37 52 54 54 55 50 51 54 57 55 53 51 52 54 56 57 59 61 61 60 59 58 59 61
46 49 43 36 35 33 34 28 27 34 35 41 43 46 48 46 42 42 44 46 49 51 52 54 56 57 59 59 58 58 59 59
46 46 41 39 37 41 34 36 41 38 40 44 48 49 46 44 44 44 43 44 47 51 54 55 56 56 57 58 58 60 62 64
42 44 38 33 35 39 39 45 49 45 41 39 41 43 47 48 48 49 50 51 50 51 52 55 57 57 58 59 60 62 65 67
37 34 33 34 36 34 36 38 40 40 42 40 39 43 48 51 53 57 57 58 61 62 61 60 60 61 61 62 62 67 68 69
33 32 32 34 33 32 35 35 34 38 39 40 46 51 54 55 52 45 43 38 37 39 44 51 61 65 64 62 65 61 55 52
37 36 36 37 36 37 39 36 35 37 40 43 44 45 41 33 29 31 30 31 29 25 30 28 22 29 37 36 40 43 47 55
45 44 43 43 43 42 41 39 37 37 36 36 33 32 32 27 24 28 20 17 21 19 16 21 20 21 23 29 36 39 39 38
49 48 48 47 45 42 39 35 32 27 22 22 16 15 17 18 17 11 12 14 11 11 7 8 14 14 17 20 19 19 19 28

GFSFLT1_500_spd_126.txt.gz
Wind_Speed
59 60 61 62 63 65 67 67 66 65 64 65 63 62 59 57 59 63 61 58 58 56 55 53 49 54 51 53 49 55 60 64
63 65 68 70 72 73 74 74 75 73 67 67 64 61 61 60 60 64 66 61 57 59 60 57 54 54 50 51 50 50 52 55
67 68 69 71 73 73 70 68 68 59 56 55 52 58 60 63 62 62 66 67 63 59 61 59 57 57 53 55 51 53 40 48
66 63 62 58 54 53 52 54 55 56 54 51 52 53 59 61 62 63 63 66 67 63 60 63 60 57 54 54 53 46 45 45
55 54 50 47 45 48 58 62 63 57 56 56 54 54 54 53 56 53 60 64 68 66 62 61 60 57 54 53 54 48 44 37
45 45 45 44 44 47 46 49 56 62 61 59 46 47 47 50 51 45 48 56 64 67 66 64 60 56 54 53 55 52 48 48
38 35 38 40 42 39 40 40 41 42 43 40 46 41 44 40 36 40 39 45 49 56 59 58 59 57 53 54 54 52 52 51
40 38 31 35 33 35 38 35 37 41 41 37 43 44 42 38 39 35 37 44 47 45 52 57 57 56 53 51 53 52 51 51
35 28 29 29 36 34 42 41 35 36 41 36 41 46 42 41 41 35 33 35 39 45 45 45 54 57 58 55 55 56 56 55
36 34 36 32 26 22 24 30 39 43 44 42 44 46 44 44 38 40 40 41 43 50 55 53 52 55 59 60 57 57 57 57
36 39 39 38 41 36 35 29 23 27 35 38 37 35 41 49 36 40 42 48 48 50 51 49 48 50 57 61 59 58 58 58
37 38 40 42 42 44 47 47 37 33 37 32 28 28 31 33 38 45 50 49 40 41 41 43 46 48 51 56 60 57 57 58
37 37 39 41 41 43 43 43 44 43 42 41 39 35 36 43 46 46 42 44 44 47 48 46 45 47 52 53 55 56 56 56
37 38 39 41 42 40 41 43 41 42 42 42 46 43 44 42 43 40 42 45 48 51 52 52 52 51 49 51 54 56 56 55
40 40 40 35 34 34 36 37 35 35 34 33 32 32 34 36 40 41 44 48 53 57 57 58 57 56 56 54 54 56 56 55
42 40 35 32 30 29 31 30 29 30 30 30 28 30 34 35 39 43 46 43 39 38 37 35 35 42 50 55 58 57 56 57
39 39 39 38 37 36 34 32 30 31 29 29 28 31 32 34 35 33 31 32 38 37 35 33 34 34 35 36 46 56 56 56
44 44 45 44 42 41 39 37 35 32 28 25 25 21 21 22 22 25 29 29 28 28 30 30 27 25 27 24 24 31 40 47
36 36 39 39 38 35 33 31 29 25 19 12 9 8 7 6 5 4 5 12 18 17 13 9 8 8 11 20 18 20 25 30

GFSFLT1_500_spd_129.txt.gz
Wind_Speed
48 49 51 52 54 56 59 61 64 66 69 68 68 66 66 65 61 61 62 64 65 66 65 62 59 54 52 49 51 46 41 40
52 53 54 56 58 60 63 66 69 71 73 74 75 72 66 65 65 62 63 66 68 70 72 68 65 61 59 57 51 50 49 53
57 58 59 59 61 62 64 67 68 69 70 70 72 70 66 59 58 59 60 63 66 68 70 72 69 65 64 65 58 54 54 50
56 57 59 61 62 63 61 59 58 58 58 59 58 57 55 53 52 59 64 64 63 64 69 70 67 66 63 65 64 60 56 54
56 57 60 59 57 51 49 48 49 50 53 54 55 54 54 56 57 53 60 62 61 63 65 67 67 65 60 61 64 62 61 59
50 52 53 51 47 47 47 48 46 45 45 48 51 54 53 54 56 49 58 60 58 61 61 66 66 66 66 59 60 62 59 58
38 38 40 45 47 43 43 44 42 41 39 38 39 39 40 43 43 45 46 45 48 50 49 45 51 54 55 59 61 59 59 58
39 38 40 41 39 38 41 41 38 39 43 40 38 38 42 39 41 37 45 41 45 42 39 34 36 41 45 45 49 55 56 57
41 41 41 42 38 37 35 36 41 39 35 37 40 37 33 40 35 30 38 39 43 35 38 39 38 39 42 45 44 47 56 56
45 44 44 45 40 40 37 36 37 35 27 36 26 27 30 34 36 36 36 40 35 38 39 41 41 44 46 46 48 48 49 58
43 40 41 41 38 40 39 38 39 38 35 41 35 31 34 35 31 31 30 38 43 42 45 44 46 49 50 53 55 54 55 55
38 37 35 35 37 38 38 37 37 40 39 39 35 41 38 38 34 31 32 32 37 41 45 52 53 47 44 40 41 49 54 54
39 40 38 37 37 39 40 40 40 39 38 40 38 38 39 40 44 42 41 42 45 48 49 43 40 42 44 45 44 43 46 54
40 39 39 38 38 38 39 39 37 38 38 37 38 37 38 40 43 44 47 49 43 40 40 42 45 48 50 51 51 50 48 47
40 36 35 37 38 38 35 32 30 31 31 29 31 31 32 30 29 30 33 36 39 42 44 46 44 42 43 47 53 55 52 50
37 38 39 37 36 34 32 30 29 29 27 26 26 27 27 28 30 31 35 35 34 36 37 33 37 35 34 36 38 42 50 53
39 39 38 40 40 39 37 34 32 31 29 27 25 26 25 27 26 23 21 22 24 27 30 37 33 33 35 36 37 34 36 45
38 39 37 36 35 35 34 31 30 28 24 23 22 21 17 11 15 17 15 12 13 16 18 23 30 29 31 24 26 25 28 30
32 31 30 30 29 29 29 26 22 21 20 18 14 11 9 13 13 11 9 5 3 4 8 10 10 11 4 4 9 23 34 25

GFSFLT1_500_spd_135.txt.gz
Wind_Speed
46 46 48 48 47 47 46 47 48 49 50 51 51 51 52 53 54 56 57 57 58 58 60 63 65 67 67 67 68 65 66 63
48 48 47 47 47 48 48 49 50 51 53 54 55 56 56 57 57 58 59 61 62 64 66 67 68 71 72 73 72 72 71 68
47 47 48 48 48 49 51 52 53 53 53 53 54 56 58 58 59 60 60 61 61 62 65 68 71 74 76 78 79 77 77 74
51 52 51 51 51 51 52 51 51 51 51 51 52 54 54 54 53 54 55 57 59 61 60 62 67 69 73 75 78 78 76 72
54 53 52 52 51 51 51 50 51 50 50 51 50 51 50 50 50 50 52 55 58 59 60 60 62 66 72 75 76 75 77 71
52 51 51 51 50 49 48 46 46 47 48 49 50 50 48 48 47 48 49 50 52 53 55 57 58 60 62 71 71 74 72 69
48 48 48 47 46 45 44 44 45 46 47 48 49 50 50 49 47 48 48 51 51 51 46 48 52 58 63 65 67 69 67 68
43 42 42 42 41 42 42 42 43 45 48 49 50 52 50 47 47 48 51 46 46 52 48 47 48 51 52 55 60 63 63 65
40 39 38 40 40 39 39 41 43 45 48 48 47 46 45 46 47 44 45 45 47 47 49 48 47 48 49 48 49 53 57 56
36 38 38 39 39 38 40 41 44 45 47 46 45 43 42 44 48 46 43 43 38 36 38 41 43 41 42 41 44 48 50 52
37 38 39 39 39 39 41 43 47 47 47 45 44 42 42 41 43 45 43 43 46 46 47 45 42 43 43 42 43 43 43 44
39 40 39 39 40 42 43 46 49 47 45 42 41 41 41 41 41 43 43 43 42 43 42 44 40 42 44 43 47 47 47 50
40 39 41 44 45 47 47 48 49 45 42 41 40 39 39 38 37 37 36 34 36 38 37 40 41 42 43 43 44 49 56 57
44 42 42 43 45 47 48 50 47 42 41 39 36 35 33 33 31 29 30 30 31 32 33 35 39 44 44 46 46 48 52 54
42 41 42 44 45 47 48 46 43 42 41 38 35 35 33 32 31 29 30 31 30 32 34 35 36 39 41 42 46 50 51 52
41 42 44 45 46 43 41 41 41 41 41 42 38 35 34 34 33 32 31 30 30 31 32 33 34 37 39 40 43 45 49 52
44 45 44 44 41 41 42 44 44 42 41 41 40 38 36 34 34 33 30 28 27 28 27 28 30 32 33 37 39 39 39 41
45 46 44 43 43 42 42 40 38 34 34 35 35 34 33 34 33 31 27 26 27 28 31 32 30 30 27 25 24 27 30 33
43 44 42 40 39 38 34 32 34 36 36 36 37 35 32 33 29 25 25 26 26 27 29 23 28 18 13 14 12 14 13 17